GEFSNGP_prec_meanprecacc_222.txt.gz
Total_Precipitation_Accumulation
0.42 0.42 0.42 0.42 0.35 0.32 0.42 0.53 0.82 1.12 1.47 1.79 1.85 1.87 1.92 2.05 1.98 1.76 1.59 1.42 1.28 1.26 1.34 1.32 1.29 1.28 1.30 1.44 1.50 1.71 1.77 1.71 1.67 1.62 1.59 1.58 1.51 1.34 1.18 1.07 1.02 1.08 1.01 0.96
0.43 0.37 0.45 0.44 0.43 0.45 0.53 0.64 0.86 1.19 1.63 1.85 1.86 1.81 1.87 1.97 1.94 1.75 1.46 1.31 1.24 1.24 1.32 1.29 1.25 1.20 1.17 1.27 1.32 1.46 1.60 1.58 1.50 1.47 1.52 1.48 1.45 1.33 1.22 1.12 1.06 1.07 1.02 0.93
0.63 0.41 0.62 0.90 0.68 0.69 0.79 0.82 1.01 1.39 1.59 1.65 1.74 1.75 1.79 1.90 1.98 1.85 1.59 1.49 1.51 1.54 1.53 1.41 1.29 1.23 1.24 1.30 1.34 1.41 1.47 1.41 1.41 1.41 1.37 1.34 1.22 1.13 1.16 1.18 1.08 1.02 0.93 0.82
0.63 0.77 1.26 1.14 0.63 0.71 0.85 0.88 0.92 1.05 1.18 1.34 1.46 1.54 1.68 1.86 2.01 1.97 1.84 1.80 1.82 1.77 1.63 1.48 1.36 1.32 1.31 1.29 1.36 1.44 1.41 1.34 1.27 1.28 1.24 1.19 1.15 1.10 1.10 1.09 1.03 1.00 0.91 0.80
0.85 1.17 1.37 1.10 0.66 0.64 0.95 1.12 0.89 0.89 0.92 0.95 0.98 1.17 1.55 1.70 1.79 1.83 1.84 1.79 1.70 1.64 1.55 1.45 1.34 1.29 1.24 1.24 1.23 1.24 1.21 1.17 1.08 1.10 1.16 1.16 1.14 1.15 1.10 1.01 0.97 0.92 0.86 0.79
0.96 1.31 1.61 1.34 0.63 0.45 0.80 1.49 1.03 0.88 0.93 0.97 1.09 1.35 1.43 1.35 1.35 1.40 1.43 1.46 1.48 1.47 1.40 1.31 1.23 1.13 1.10 1.13 1.13 1.10 1.08 1.07 0.98 0.99 1.05 1.11 1.12 1.11 0.99 0.90 0.87 0.78 0.76 0.77
0.98 1.28 1.46 0.83 0.49 0.63 1.35 1.72 1.14 0.96 0.99 1.11 1.25 1.25 1.04 0.96 1.02 1.11 1.22 1.27 1.28 1.39 1.41 1.25 1.05 0.98 1.03 1.02 1.02 0.91 0.89 0.96 0.98 0.96 0.98 0.97 0.98 1.00 0.93 0.83 0.80 0.77 0.77 0.78
1.08 1.46 1.60 0.71 0.55 0.98 1.19 0.93 0.88 0.91 0.93 0.95 0.91 0.78 0.76 0.79 0.82 0.85 1.01 1.14 1.14 1.27 1.22 1.04 0.91 0.94 1.00 0.97 0.87 0.82 0.89 1.00 1.00 0.97 0.87 0.85 0.96 0.99 0.90 0.82 0.77 0.77 0.76 0.75
1.13 1.36 1.07 0.59 0.57 0.64 0.63 0.68 0.69 0.70 0.66 0.62 0.63 0.61 0.60 0.69 0.76 0.80 0.89 0.99 1.00 1.05 1.04 0.98 0.93 0.98 1.01 0.95 0.83 0.86 0.94 1.00 1.01 0.94 0.90 0.89 0.91 0.92 0.85 0.80 0.72 0.71 0.71 0.70
0.70 0.74 0.54 0.47 0.43 0.41 0.44 0.53 0.55 0.58 0.63 0.55 0.58 0.60 0.60 0.64 0.72 0.82 0.87 0.88 0.88 0.94 0.95 0.92 0.87 0.87 0.87 0.79 0.77 0.87 0.96 0.94 0.94 0.96 0.95 0.88 0.81 0.76 0.74 0.70 0.65 0.62 0.63 0.62
0.65 0.54 0.46 0.45 0.38 0.33 0.36 0.39 0.44 0.51 0.60 0.60 0.59 0.66 0.65 0.66 0.73 0.78 0.84 0.84 0.87 0.93 0.95 0.84 0.79 0.75 0.73 0.74 0.79 0.89 0.89 0.83 0.82 0.86 0.85 0.81 0.69 0.61 0.57 0.50 0.43 0.42 0.44 0.46
0.66 0.51 0.53 0.48 0.34 0.32 0.38 0.42 0.43 0.49 0.60 0.57 0.56 0.64 0.71 0.73 0.70 0.70 0.76 0.78 0.82 0.82 0.82 0.77 0.69 0.65 0.68 0.70 0.70 0.79 0.79 0.73 0.70 0.73 0.73 0.67 0.62 0.55 0.47 0.35 0.30 0.28 0.27 0.29
0.38 0.34 0.33 0.32 0.33 0.40 0.46 0.46 0.50 0.55 0.52 0.47 0.52 0.59 0.69 0.73 0.63 0.60 0.63 0.66 0.73 0.73 0.72 0.69 0.64 0.66 0.68 0.60 0.60 0.67 0.71 0.68 0.61 0.59 0.63 0.61 0.55 0.54 0.54 0.41 0.31 0.28 0.26 0.28
0.32 0.37 0.43 0.46 0.52 0.51 0.49 0.43 0.43 0.42 0.41 0.40 0.46 0.53 0.58 0.61 0.53 0.52 0.59 0.59 0.58 0.62 0.64 0.63 0.62 0.59 0.54 0.51 0.55 0.60 0.58 0.53 0.50 0.51 0.50 0.47 0.45 0.44 0.45 0.52 0.52 0.44 0.33 0.29
0.37 0.41 0.48 0.45 0.44 0.40 0.36 0.33 0.34 0.35 0.36 0.40 0.40 0.43 0.46 0.49 0.48 0.45 0.47 0.47 0.48 0.54 0.56 0.52 0.49 0.51 0.49 0.47 0.49 0.51 0.45 0.41 0.39 0.37 0.37 0.38 0.39 0.36 0.37 0.41 0.46 0.47 0.44 0.36
0.30 0.29 0.31 0.32 0.32 0.30 0.29 0.30 0.30 0.31 0.32 0.35 0.36 0.36 0.37 0.36 0.35 0.32 0.33 0.38 0.52 0.60 0.54 0.46 0.42 0.43 0.43 0.45 0.49 0.47 0.41 0.35 0.31 0.28 0.28 0.29 0.30 0.32 0.34 0.34 0.35 0.40 0.40 0.35
0.30 0.31 0.30 0.26 0.23 0.23 0.23 0.22 0.21 0.23 0.25 0.28 0.29 0.25 0.25 0.25 0.28 0.29 0.32 0.38 0.45 0.48 0.45 0.42 0.37 0.31 0.34 0.40 0.44 0.39 0.31 0.28 0.23 0.21 0.23 0.25 0.25 0.26 0.28 0.27 0.32 0.35 0.30 0.26
0.29 0.25 0.22 0.21 0.18 0.18 0.18 0.16 0.16 0.20 0.22 0.22 0.21 0.21 0.21 0.24 0.28 0.28 0.31 0.36 0.39 0.38 0.34 0.29 0.29 0.27 0.25 0.29 0.35 0.33 0.28 0.28 0.21 0.19 0.20 0.23 0.25 0.25 0.23 0.24 0.26 0.26 0.25 0.23
0.20 0.14 0.13 0.14 0.14 0.14 0.15 0.14 0.15 0.17 0.17 0.18 0.18 0.18 0.19 0.21 0.22 0.24 0.27 0.35 0.39 0.40 0.33 0.24 0.23 0.22 0.19 0.20 0.26 0.26 0.24 0.24 0.22 0.20 0.21 0.22 0.23 0.25 0.21 0.18 0.20 0.21 0.21 0.21
0.15 0.10 0.11 0.12 0.11 0.12 0.14 0.13 0.15 0.15 0.15 0.15 0.15 0.16 0.19 0.19 0.16 0.19 0.27 0.35 0.39 0.34 0.27 0.23 0.18 0.16 0.15 0.15 0.19 0.21 0.21 0.21 0.19 0.18 0.20 0.21 0.23 0.21 0.18 0.17 0.19 0.22 0.23 0.24
0.13 0.11 0.11 0.12 0.11 0.11 0.13 0.13 0.14 0.14 0.14 0.14 0.16 0.16 0.17 0.17 0.14 0.19 0.28 0.36 0.33 0.26 0.22 0.20 0.18 0.15 0.14 0.15 0.17 0.20 0.20 0.19 0.16 0.16 0.19 0.21 0.21 0.17 0.15 0.17 0.17 0.20 0.23 0.25
0.12 0.12 0.14 0.13 0.13 0.13 0.14 0.14 0.15 0.16 0.16 0.17 0.16 0.14 0.16 0.18 0.17 0.20 0.25 0.27 0.23 0.18 0.16 0.16 0.15 0.14 0.15 0.15 0.14 0.15 0.17 0.18 0.18 0.20 0.20 0.17 0.15 0.14 0.13 0.15 0.18 0.19 0.20 0.22
0.14 0.14 0.15 0.15 0.14 0.14 0.13 0.16 0.19 0.18 0.16 0.15 0.14 0.14 0.16 0.19 0.19 0.20 0.21 0.17 0.14 0.13 0.14 0.14 0.13 0.13 0.12 0.11 0.11 0.14 0.15 0.16 0.15 0.16 0.16 0.16 0.14 0.14 0.15 0.16 0.18 0.19 0.20 0.20
0.19 0.18 0.15 0.13 0.14 0.17 0.17 0.17 0.17 0.17 0.15 0.12 0.11 0.12 0.14 0.16 0.18 0.18 0.18 0.16 0.15 0.13 0.11 0.12 0.12 0.11 0.10 0.09 0.11 0.13 0.15 0.14 0.11 0.12 0.13 0.13 0.14 0.14 0.15 0.16 0.16 0.17 0.17 0.16
0.25 0.23 0.20 0.18 0.19 0.22 0.19 0.17 0.15 0.13 0.11 0.10 0.09 0.10 0.11 0.13 0.14 0.16 0.18 0.18 0.17 0.15 0.11 0.10 0.09 0.09 0.10 0.11 0.13 0.14 0.13 0.11 0.10 0.10 0.09 0.11 0.11 0.10 0.11 0.13 0.14 0.14 0.13 0.13
0.32 0.28 0.25 0.25 0.23 0.21 0.19 0.20 0.18 0.15 0.13 0.12 0.11 0.11 0.11 0.14 0.16 0.18 0.19 0.18 0.18 0.14 0.10 0.09 0.09 0.10 0.12 0.13 0.12 0.11 0.11 0.10 0.09 0.08 0.08 0.10 0.10 0.10 0.11 0.13 0.12 0.12 0.13 0.13
0.44 0.35 0.31 0.28 0.23 0.19 0.20 0.23 0.21 0.17 0.14 0.14 0.14 0.13 0.14 0.16 0.17 0.17 0.17 0.17 0.17 0.13 0.10 0.09 0.09 0.10 0.11 0.12 0.11 0.11 0.12 0.11 0.09 0.09 0.10 0.10 0.12 0.13 0.14 0.13 0.12 0.13 0.15 0.14

GEFSNGP_prec_meanprecacc_228.txt.gz
Total_Precipitation_Accumulation
0.43 0.42 0.43 0.43 0.36 0.32 0.42 0.54 0.83 1.14 1.49 1.80 1.87 1.88 1.93 2.06 2.01 1.78 1.61 1.44 1.30 1.30 1.37 1.34 1.31 1.29 1.32 1.46 1.53 1.75 1.81 1.75 1.73 1.69 1.64 1.63 1.55 1.39 1.24 1.12 1.07 1.13 1.06 1.01
0.43 0.37 0.45 0.44 0.44 0.45 0.53 0.64 0.86 1.20 1.66 1.87 1.87 1.82 1.88 1.98 1.97 1.78 1.48 1.32 1.25 1.26 1.35 1.30 1.26 1.22 1.18 1.29 1.34 1.48 1.62 1.62 1.54 1.51 1.55 1.51 1.49 1.37 1.26 1.16 1.11 1.11 1.06 0.96
0.63 0.41 0.62 0.90 0.69 0.70 0.79 0.82 1.01 1.40 1.61 1.67 1.76 1.78 1.81 1.92 2.01 1.90 1.63 1.51 1.53 1.55 1.54 1.42 1.31 1.24 1.26 1.32 1.36 1.43 1.49 1.43 1.43 1.44 1.40 1.37 1.24 1.16 1.19 1.22 1.13 1.06 0.97 0.86
0.63 0.78 1.26 1.14 0.64 0.71 0.86 0.88 0.92 1.05 1.19 1.35 1.47 1.56 1.71 1.88 2.03 2.01 1.89 1.84 1.85 1.79 1.64 1.49 1.37 1.34 1.34 1.32 1.38 1.46 1.43 1.35 1.30 1.31 1.27 1.23 1.20 1.14 1.14 1.14 1.08 1.04 0.95 0.84
0.86 1.17 1.38 1.11 0.67 0.64 0.95 1.13 0.89 0.89 0.92 0.96 0.99 1.17 1.58 1.74 1.81 1.86 1.88 1.85 1.75 1.67 1.57 1.46 1.35 1.31 1.26 1.26 1.25 1.26 1.22 1.18 1.10 1.13 1.19 1.20 1.17 1.19 1.15 1.07 1.02 0.96 0.90 0.85
0.97 1.31 1.61 1.35 0.64 0.45 0.81 1.50 1.04 0.89 0.93 0.97 1.09 1.36 1.45 1.36 1.37 1.43 1.46 1.50 1.53 1.51 1.42 1.33 1.25 1.16 1.13 1.15 1.14 1.11 1.10 1.09 0.99 1.00 1.07 1.14 1.15 1.15 1.05 0.97 0.92 0.82 0.80 0.83
0.99 1.29 1.47 0.84 0.49 0.64 1.37 1.76 1.17 0.98 1.00 1.12 1.25 1.26 1.04 0.97 1.04 1.13 1.24 1.29 1.31 1.41 1.43 1.26 1.07 1.01 1.06 1.05 1.04 0.92 0.91 0.98 0.99 0.98 0.99 0.99 1.01 1.03 0.99 0.89 0.85 0.82 0.82 0.84
1.10 1.48 1.62 0.72 0.55 0.99 1.21 0.95 0.90 0.92 0.94 0.96 0.91 0.78 0.76 0.79 0.82 0.87 1.03 1.17 1.18 1.29 1.23 1.07 0.95 0.98 1.04 1.01 0.90 0.84 0.91 1.02 1.02 0.99 0.88 0.86 0.98 1.02 0.96 0.89 0.82 0.82 0.81 0.81
1.15 1.39 1.09 0.59 0.58 0.64 0.63 0.69 0.71 0.71 0.67 0.63 0.63 0.61 0.61 0.69 0.76 0.81 0.91 1.02 1.03 1.07 1.06 0.99 0.95 1.00 1.05 0.99 0.85 0.88 0.97 1.02 1.04 0.97 0.93 0.91 0.94 0.94 0.89 0.84 0.76 0.75 0.74 0.75
0.72 0.75 0.55 0.47 0.44 0.41 0.44 0.54 0.56 0.59 0.63 0.55 0.58 0.60 0.60 0.64 0.73 0.82 0.88 0.90 0.91 0.96 0.97 0.94 0.88 0.88 0.90 0.82 0.80 0.90 0.99 0.97 0.97 0.99 0.98 0.91 0.84 0.78 0.76 0.74 0.69 0.65 0.66 0.66
0.66 0.55 0.47 0.45 0.38 0.33 0.36 0.40 0.44 0.51 0.60 0.60 0.59 0.66 0.65 0.66 0.73 0.79 0.85 0.86 0.89 0.96 0.97 0.86 0.80 0.76 0.75 0.77 0.83 0.93 0.93 0.87 0.86 0.89 0.88 0.83 0.71 0.63 0.60 0.53 0.45 0.45 0.47 0.49
0.67 0.52 0.54 0.48 0.35 0.32 0.38 0.42 0.43 0.49 0.60 0.57 0.56 0.64 0.71 0.73 0.71 0.71 0.78 0.80 0.84 0.84 0.84 0.79 0.71 0.68 0.71 0.73 0.74 0.83 0.83 0.78 0.74 0.76 0.75 0.68 0.63 0.57 0.49 0.36 0.31 0.29 0.29 0.31
0.39 0.36 0.35 0.33 0.34 0.41 0.47 0.46 0.50 0.55 0.53 0.47 0.53 0.59 0.69 0.74 0.63 0.61 0.64 0.68 0.75 0.75 0.74 0.71 0.66 0.68 0.70 0.62 0.61 0.70 0.75 0.73 0.65 0.61 0.65 0.62 0.57 0.57 0.57 0.43 0.32 0.29 0.28 0.30
0.32 0.37 0.44 0.47 0.52 0.52 0.49 0.43 0.43 0.42 0.41 0.40 0.46 0.53 0.58 0.61 0.54 0.53 0.59 0.61 0.60 0.64 0.65 0.65 0.62 0.60 0.55 0.52 0.57 0.63 0.62 0.58 0.55 0.55 0.53 0.50 0.48 0.47 0.49 0.55 0.55 0.47 0.36 0.31
0.37 0.41 0.48 0.45 0.44 0.40 0.36 0.34 0.34 0.35 0.36 0.40 0.40 0.43 0.46 0.49 0.49 0.45 0.48 0.47 0.49 0.56 0.58 0.53 0.50 0.53 0.51 0.48 0.51 0.54 0.49 0.44 0.43 0.41 0.40 0.41 0.42 0.40 0.41 0.44 0.49 0.51 0.48 0.40
0.30 0.29 0.31 0.32 0.32 0.30 0.29 0.30 0.30 0.31 0.32 0.35 0.36 0.36 0.37 0.37 0.36 0.32 0.33 0.38 0.53 0.61 0.56 0.48 0.43 0.44 0.44 0.47 0.51 0.50 0.44 0.38 0.33 0.31 0.30 0.31 0.33 0.35 0.37 0.37 0.38 0.44 0.45 0.39
0.30 0.31 0.30 0.26 0.23 0.23 0.23 0.22 0.21 0.23 0.25 0.28 0.29 0.25 0.25 0.25 0.28 0.29 0.33 0.39 0.45 0.49 0.46 0.43 0.38 0.32 0.34 0.41 0.46 0.41 0.35 0.32 0.28 0.25 0.26 0.27 0.28 0.30 0.31 0.30 0.34 0.38 0.33 0.28
0.29 0.25 0.22 0.21 0.18 0.18 0.18 0.16 0.16 0.20 0.22 0.22 0.21 0.21 0.21 0.24 0.28 0.29 0.31 0.36 0.39 0.38 0.35 0.30 0.29 0.27 0.26 0.30 0.37 0.34 0.31 0.31 0.26 0.23 0.24 0.26 0.28 0.28 0.26 0.27 0.28 0.28 0.28 0.25
0.20 0.14 0.13 0.14 0.14 0.14 0.16 0.14 0.15 0.17 0.17 0.18 0.18 0.18 0.19 0.21 0.23 0.24 0.27 0.35 0.40 0.41 0.34 0.24 0.24 0.23 0.21 0.22 0.26 0.27 0.26 0.27 0.26 0.24 0.23 0.24 0.26 0.27 0.24 0.21 0.22 0.22 0.23 0.23
0.15 0.10 0.11 0.12 0.11 0.12 0.14 0.13 0.15 0.15 0.15 0.15 0.15 0.16 0.19 0.19 0.16 0.20 0.27 0.36 0.40 0.35 0.28 0.24 0.19 0.17 0.16 0.17 0.20 0.22 0.24 0.26 0.25 0.22 0.23 0.25 0.26 0.24 0.21 0.18 0.21 0.23 0.25 0.27
0.13 0.11 0.11 0.12 0.11 0.11 0.13 0.14 0.14 0.14 0.14 0.14 0.16 0.16 0.17 0.17 0.14 0.19 0.29 0.38 0.35 0.27 0.22 0.21 0.19 0.17 0.15 0.16 0.18 0.21 0.22 0.22 0.20 0.20 0.22 0.26 0.25 0.20 0.19 0.19 0.20 0.24 0.26 0.29
0.12 0.12 0.14 0.13 0.13 0.14 0.14 0.14 0.15 0.16 0.16 0.17 0.16 0.14 0.16 0.19 0.17 0.21 0.26 0.29 0.25 0.19 0.17 0.17 0.17 0.15 0.16 0.16 0.15 0.16 0.18 0.20 0.19 0.22 0.23 0.21 0.20 0.18 0.17 0.18 0.21 0.22 0.23 0.26
0.14 0.15 0.15 0.15 0.14 0.14 0.13 0.17 0.19 0.18 0.16 0.15 0.14 0.14 0.16 0.19 0.20 0.21 0.22 0.18 0.14 0.14 0.15 0.15 0.14 0.13 0.13 0.11 0.11 0.15 0.17 0.17 0.16 0.18 0.18 0.19 0.19 0.19 0.20 0.20 0.22 0.22 0.24 0.25
0.21 0.20 0.16 0.14 0.14 0.17 0.18 0.17 0.17 0.17 0.15 0.12 0.11 0.12 0.14 0.17 0.19 0.19 0.19 0.17 0.15 0.14 0.12 0.13 0.13 0.11 0.10 0.09 0.11 0.14 0.16 0.15 0.13 0.14 0.15 0.16 0.16 0.16 0.19 0.22 0.21 0.22 0.22 0.21
0.27 0.26 0.22 0.18 0.20 0.23 0.20 0.18 0.16 0.13 0.11 0.10 0.09 0.10 0.11 0.14 0.15 0.17 0.20 0.19 0.19 0.17 0.13 0.12 0.10 0.10 0.10 0.11 0.14 0.15 0.15 0.13 0.12 0.11 0.11 0.13 0.14 0.13 0.15 0.18 0.18 0.18 0.17 0.17
0.33 0.29 0.27 0.26 0.24 0.22 0.20 0.20 0.19 0.15 0.13 0.13 0.12 0.11 0.12 0.14 0.17 0.19 0.21 0.20 0.20 0.17 0.13 0.11 0.12 0.12 0.13 0.14 0.13 0.12 0.13 0.12 0.10 0.09 0.09 0.12 0.14 0.14 0.14 0.16 0.16 0.15 0.16 0.17
0.44 0.35 0.32 0.29 0.24 0.20 0.20 0.23 0.22 0.18 0.15 0.15 0.16 0.15 0.16 0.18 0.19 0.18 0.19 0.20 0.20 0.16 0.13 0.12 0.12 0.13 0.14 0.14 0.12 0.12 0.14 0.12 0.10 0.11 0.12 0.13 0.15 0.17 0.17 0.15 0.14 0.15 0.18 0.18

GEFSNGP_prec_meanprecacc_234.txt.gz
Total_Precipitation_Accumulation
0.44 0.42 0.43 0.44 0.37 0.33 0.43 0.54 0.84 1.15 1.51 1.83 1.91 1.94 1.97 2.10 2.03 1.80 1.62 1.45 1.31 1.31 1.38 1.36 1.34 1.32 1.35 1.50 1.60 1.82 1.93 1.91 1.84 1.75 1.70 1.68 1.60 1.44 1.28 1.15 1.11 1.17 1.09 1.03
0.45 0.38 0.46 0.45 0.45 0.47 0.54 0.64 0.87 1.20 1.66 1.88 1.89 1.87 1.91 2.01 2.00 1.81 1.50 1.34 1.27 1.27 1.36 1.32 1.28 1.25 1.22 1.33 1.39 1.53 1.67 1.66 1.58 1.55 1.59 1.54 1.51 1.40 1.30 1.19 1.12 1.13 1.08 0.98
0.64 0.43 0.62 0.90 0.70 0.71 0.80 0.83 1.02 1.40 1.62 1.67 1.77 1.80 1.84 1.96 2.04 1.92 1.65 1.54 1.55 1.57 1.56 1.44 1.32 1.26 1.28 1.34 1.38 1.45 1.52 1.45 1.45 1.45 1.41 1.39 1.25 1.18 1.21 1.24 1.15 1.08 0.98 0.87
0.64 0.80 1.28 1.15 0.64 0.72 0.86 0.88 0.93 1.06 1.19 1.36 1.49 1.58 1.73 1.90 2.05 2.03 1.90 1.86 1.87 1.80 1.65 1.50 1.38 1.34 1.35 1.34 1.40 1.48 1.45 1.38 1.31 1.33 1.28 1.24 1.21 1.16 1.16 1.16 1.11 1.06 0.97 0.86
0.87 1.18 1.39 1.12 0.68 0.65 0.97 1.13 0.90 0.90 0.93 0.98 1.02 1.20 1.60 1.76 1.82 1.88 1.89 1.87 1.78 1.69 1.60 1.48 1.36 1.32 1.28 1.28 1.27 1.28 1.24 1.20 1.11 1.14 1.20 1.21 1.18 1.21 1.17 1.09 1.04 0.98 0.92 0.88
0.99 1.33 1.62 1.36 0.65 0.47 0.82 1.52 1.04 0.89 0.95 1.00 1.13 1.39 1.48 1.38 1.38 1.43 1.47 1.51 1.55 1.54 1.46 1.36 1.27 1.18 1.14 1.17 1.16 1.13 1.11 1.10 1.01 1.02 1.08 1.16 1.17 1.17 1.07 0.99 0.95 0.85 0.83 0.86
1.01 1.32 1.49 0.85 0.50 0.65 1.39 1.77 1.18 1.00 1.03 1.15 1.27 1.27 1.05 0.97 1.04 1.13 1.25 1.30 1.31 1.43 1.45 1.29 1.09 1.03 1.08 1.06 1.05 0.94 0.92 0.99 1.00 0.99 1.01 1.01 1.03 1.06 1.01 0.92 0.88 0.86 0.86 0.87
1.12 1.51 1.65 0.74 0.57 1.01 1.22 0.96 0.92 0.94 0.97 1.00 0.93 0.79 0.77 0.79 0.83 0.87 1.04 1.18 1.19 1.30 1.25 1.08 0.97 0.99 1.06 1.03 0.91 0.85 0.92 1.04 1.04 1.01 0.90 0.88 1.00 1.05 0.98 0.91 0.84 0.85 0.85 0.85
1.18 1.42 1.12 0.62 0.60 0.66 0.65 0.70 0.71 0.73 0.68 0.64 0.65 0.62 0.61 0.69 0.76 0.81 0.91 1.02 1.03 1.09 1.06 1.00 0.96 1.02 1.07 1.01 0.87 0.90 0.99 1.05 1.07 1.00 0.96 0.94 0.97 0.97 0.92 0.87 0.79 0.77 0.78 0.80
0.73 0.78 0.58 0.51 0.48 0.44 0.46 0.55 0.57 0.60 0.64 0.55 0.59 0.61 0.61 0.64 0.73 0.82 0.89 0.90 0.91 0.97 0.97 0.94 0.89 0.90 0.91 0.84 0.82 0.93 1.02 1.00 1.00 1.02 1.01 0.94 0.87 0.82 0.79 0.76 0.71 0.68 0.69 0.69
0.67 0.56 0.49 0.47 0.40 0.36 0.40 0.43 0.46 0.52 0.61 0.60 0.59 0.67 0.66 0.67 0.73 0.79 0.85 0.86 0.89 0.97 0.97 0.86 0.81 0.78 0.76 0.78 0.84 0.95 0.95 0.89 0.87 0.90 0.89 0.84 0.72 0.65 0.62 0.55 0.48 0.48 0.49 0.51
0.68 0.54 0.56 0.51 0.36 0.33 0.41 0.47 0.47 0.51 0.61 0.57 0.56 0.65 0.72 0.73 0.71 0.72 0.78 0.80 0.85 0.85 0.85 0.81 0.72 0.69 0.71 0.74 0.74 0.84 0.84 0.79 0.75 0.78 0.76 0.70 0.65 0.58 0.51 0.38 0.35 0.32 0.31 0.33
0.40 0.37 0.37 0.35 0.35 0.42 0.48 0.48 0.53 0.57 0.54 0.47 0.53 0.60 0.69 0.74 0.63 0.61 0.64 0.68 0.75 0.76 0.74 0.72 0.67 0.69 0.71 0.62 0.62 0.71 0.77 0.75 0.66 0.63 0.66 0.64 0.58 0.58 0.59 0.44 0.34 0.30 0.29 0.31
0.32 0.38 0.46 0.50 0.55 0.53 0.51 0.45 0.44 0.42 0.41 0.41 0.46 0.53 0.58 0.61 0.54 0.53 0.59 0.61 0.60 0.64 0.66 0.65 0.63 0.61 0.56 0.52 0.58 0.63 0.64 0.60 0.56 0.56 0.55 0.51 0.50 0.48 0.50 0.57 0.57 0.49 0.37 0.32
0.38 0.42 0.49 0.47 0.45 0.41 0.38 0.35 0.35 0.36 0.36 0.40 0.40 0.43 0.46 0.49 0.49 0.45 0.48 0.47 0.49 0.56 0.58 0.53 0.51 0.54 0.52 0.49 0.52 0.54 0.50 0.46 0.44 0.42 0.42 0.42 0.43 0.42 0.42 0.46 0.52 0.53 0.51 0.42
0.31 0.30 0.32 0.33 0.32 0.31 0.30 0.32 0.31 0.31 0.32 0.35 0.36 0.36 0.37 0.37 0.36 0.32 0.33 0.38 0.53 0.61 0.56 0.48 0.43 0.45 0.45 0.48 0.52 0.51 0.45 0.39 0.35 0.33 0.32 0.34 0.35 0.37 0.39 0.39 0.41 0.47 0.49 0.43
0.31 0.31 0.31 0.27 0.24 0.24 0.24 0.23 0.21 0.23 0.25 0.28 0.29 0.26 0.25 0.25 0.28 0.29 0.33 0.39 0.45 0.49 0.46 0.43 0.38 0.32 0.35 0.41 0.46 0.42 0.36 0.34 0.30 0.28 0.29 0.30 0.30 0.31 0.33 0.32 0.36 0.40 0.36 0.33
0.30 0.26 0.23 0.21 0.19 0.19 0.19 0.16 0.16 0.20 0.22 0.22 0.21 0.21 0.21 0.24 0.28 0.29 0.31 0.36 0.40 0.38 0.35 0.30 0.29 0.28 0.26 0.30 0.38 0.35 0.32 0.32 0.27 0.25 0.27 0.29 0.30 0.30 0.28 0.29 0.30 0.31 0.31 0.28
0.21 0.15 0.14 0.15 0.14 0.15 0.16 0.15 0.16 0.17 0.17 0.18 0.18 0.18 0.19 0.21 0.23 0.24 0.27 0.35 0.40 0.41 0.34 0.24 0.24 0.23 0.21 0.22 0.27 0.28 0.27 0.29 0.28 0.26 0.26 0.28 0.30 0.31 0.28 0.24 0.25 0.27 0.26 0.26
0.15 0.11 0.12 0.12 0.11 0.12 0.15 0.14 0.15 0.16 0.15 0.15 0.15 0.16 0.19 0.19 0.16 0.20 0.28 0.37 0.41 0.36 0.29 0.24 0.20 0.18 0.17 0.17 0.20 0.22 0.24 0.27 0.26 0.23 0.25 0.27 0.29 0.28 0.24 0.21 0.23 0.26 0.28 0.30
0.14 0.12 0.12 0.13 0.12 0.12 0.14 0.14 0.14 0.15 0.14 0.14 0.16 0.16 0.17 0.17 0.15 0.20 0.30 0.39 0.35 0.27 0.23 0.22 0.20 0.17 0.16 0.16 0.18 0.21 0.22 0.23 0.21 0.20 0.23 0.27 0.27 0.24 0.21 0.21 0.22 0.26 0.29 0.32
0.14 0.14 0.15 0.15 0.14 0.14 0.15 0.15 0.15 0.16 0.16 0.17 0.16 0.14 0.17 0.19 0.18 0.22 0.27 0.30 0.26 0.20 0.18 0.17 0.17 0.16 0.16 0.16 0.15 0.16 0.19 0.21 0.20 0.22 0.24 0.22 0.22 0.21 0.20 0.22 0.24 0.25 0.26 0.29
0.18 0.18 0.18 0.16 0.15 0.14 0.14 0.17 0.19 0.18 0.17 0.15 0.15 0.14 0.17 0.20 0.20 0.22 0.23 0.19 0.15 0.16 0.16 0.15 0.14 0.14 0.13 0.12 0.12 0.16 0.18 0.18 0.17 0.20 0.20 0.21 0.22 0.23 0.24 0.24 0.24 0.24 0.26 0.28
0.26 0.27 0.20 0.15 0.15 0.18 0.18 0.18 0.17 0.17 0.15 0.12 0.11 0.12 0.14 0.18 0.20 0.20 0.21 0.18 0.17 0.15 0.13 0.14 0.14 0.12 0.11 0.10 0.13 0.16 0.18 0.17 0.15 0.16 0.16 0.18 0.19 0.19 0.22 0.24 0.23 0.24 0.24 0.24
0.32 0.34 0.27 0.21 0.21 0.23 0.20 0.18 0.16 0.13 0.11 0.10 0.09 0.11 0.12 0.14 0.15 0.18 0.21 0.21 0.20 0.18 0.14 0.13 0.12 0.11 0.12 0.13 0.15 0.16 0.16 0.14 0.13 0.12 0.12 0.14 0.16 0.16 0.18 0.20 0.20 0.20 0.20 0.20
0.38 0.36 0.31 0.28 0.25 0.23 0.20 0.21 0.19 0.15 0.14 0.13 0.12 0.12 0.13 0.15 0.17 0.20 0.22 0.21 0.22 0.18 0.14 0.13 0.14 0.14 0.15 0.16 0.14 0.13 0.14 0.12 0.10 0.10 0.10 0.12 0.15 0.16 0.16 0.17 0.17 0.17 0.20 0.21
0.47 0.39 0.35 0.31 0.25 0.21 0.21 0.23 0.22 0.18 0.15 0.16 0.16 0.15 0.16 0.18 0.20 0.20 0.21 0.22 0.21 0.17 0.15 0.14 0.14 0.14 0.15 0.15 0.13 0.13 0.15 0.12 0.11 0.11 0.13 0.14 0.17 0.19 0.19 0.17 0.17 0.18 0.20 0.20

GEFSNGP_prec_meanprecacc_240.txt.gz
Total_Precipitation_Accumulation
0.44 0.43 0.44 0.45 0.37 0.33 0.43 0.54 0.84 1.16 1.51 1.83 1.91 1.94 1.98 2.13 2.05 1.82 1.64 1.48 1.33 1.32 1.39 1.37 1.35 1.34 1.36 1.51 1.60 1.82 1.94 1.94 1.89 1.81 1.74 1.71 1.63 1.47 1.31 1.19 1.14 1.20 1.11 1.05
0.46 0.39 0.47 0.46 0.45 0.47 0.55 0.64 0.87 1.20 1.66 1.88 1.89 1.88 1.93 2.05 2.03 1.83 1.53 1.37 1.29 1.29 1.38 1.33 1.29 1.26 1.23 1.33 1.39 1.54 1.68 1.68 1.60 1.57 1.62 1.57 1.54 1.43 1.33 1.23 1.16 1.16 1.10 0.99
0.66 0.43 0.63 0.91 0.70 0.72 0.80 0.83 1.02 1.41 1.62 1.67 1.77 1.80 1.85 1.98 2.08 1.95 1.68 1.56 1.58 1.59 1.57 1.45 1.34 1.27 1.28 1.34 1.39 1.45 1.52 1.46 1.46 1.47 1.43 1.41 1.28 1.21 1.25 1.27 1.18 1.11 1.00 0.89
0.66 0.81 1.29 1.15 0.65 0.73 0.87 0.89 0.93 1.06 1.20 1.37 1.49 1.59 1.75 1.92 2.07 2.05 1.92 1.88 1.89 1.82 1.67 1.52 1.40 1.35 1.35 1.34 1.40 1.49 1.46 1.38 1.32 1.33 1.29 1.26 1.23 1.21 1.21 1.19 1.13 1.08 0.98 0.88
0.89 1.20 1.39 1.12 0.68 0.66 0.97 1.14 0.90 0.90 0.94 0.99 1.03 1.21 1.62 1.77 1.84 1.90 1.91 1.88 1.79 1.71 1.62 1.50 1.37 1.32 1.29 1.29 1.27 1.29 1.25 1.21 1.13 1.15 1.21 1.22 1.20 1.24 1.20 1.12 1.07 1.00 0.94 0.89
1.01 1.35 1.63 1.36 0.65 0.47 0.83 1.53 1.05 0.89 0.95 1.00 1.14 1.40 1.49 1.39 1.39 1.44 1.48 1.52 1.56 1.55 1.46 1.37 1.28 1.19 1.15 1.18 1.17 1.14 1.12 1.11 1.02 1.02 1.09 1.17 1.18 1.20 1.11 1.04 0.99 0.87 0.85 0.88
1.03 1.34 1.52 0.86 0.51 0.66 1.40 1.78 1.18 1.00 1.04 1.16 1.28 1.28 1.06 0.98 1.05 1.13 1.25 1.30 1.32 1.43 1.45 1.29 1.10 1.04 1.08 1.07 1.07 0.97 0.96 1.02 1.02 1.00 1.02 1.03 1.05 1.09 1.05 0.97 0.94 0.91 0.89 0.91
1.13 1.52 1.66 0.75 0.58 1.02 1.24 0.98 0.93 0.95 0.98 1.00 0.93 0.80 0.77 0.80 0.83 0.87 1.04 1.18 1.19 1.30 1.25 1.09 0.97 1.00 1.06 1.03 0.92 0.86 0.94 1.06 1.07 1.04 0.93 0.91 1.04 1.09 1.02 0.96 0.91 0.92 0.92 0.92
1.19 1.43 1.13 0.64 0.62 0.69 0.67 0.72 0.73 0.74 0.69 0.65 0.65 0.62 0.62 0.70 0.76 0.81 0.91 1.03 1.04 1.09 1.07 1.00 0.96 1.02 1.07 1.01 0.88 0.90 0.99 1.05 1.08 1.02 0.98 0.97 1.00 1.00 0.95 0.90 0.82 0.82 0.82 0.84
0.75 0.79 0.60 0.53 0.50 0.47 0.48 0.57 0.58 0.61 0.65 0.56 0.59 0.61 0.62 0.65 0.73 0.82 0.89 0.91 0.92 0.97 0.97 0.94 0.89 0.90 0.91 0.84 0.82 0.93 1.03 1.01 1.01 1.03 1.02 0.95 0.88 0.84 0.82 0.80 0.75 0.71 0.72 0.74
0.69 0.58 0.51 0.50 0.42 0.38 0.42 0.45 0.48 0.53 0.61 0.61 0.60 0.67 0.66 0.68 0.74 0.80 0.86 0.87 0.90 0.97 0.97 0.87 0.81 0.78 0.76 0.78 0.84 0.95 0.96 0.89 0.88 0.91 0.90 0.85 0.73 0.66 0.65 0.59 0.52 0.51 0.52 0.54
0.70 0.56 0.59 0.54 0.39 0.35 0.43 0.48 0.49 0.53 0.62 0.58 0.57 0.65 0.73 0.75 0.72 0.73 0.79 0.81 0.85 0.85 0.85 0.81 0.72 0.69 0.72 0.74 0.74 0.85 0.84 0.79 0.76 0.79 0.77 0.70 0.65 0.59 0.53 0.41 0.38 0.36 0.35 0.37
0.41 0.38 0.38 0.37 0.37 0.43 0.49 0.49 0.54 0.58 0.55 0.48 0.54 0.60 0.70 0.75 0.64 0.61 0.64 0.69 0.75 0.76 0.74 0.72 0.68 0.69 0.71 0.62 0.62 0.71 0.77 0.76 0.67 0.63 0.67 0.64 0.59 0.59 0.60 0.46 0.36 0.33 0.33 0.36
0.34 0.39 0.47 0.51 0.56 0.55 0.52 0.46 0.45 0.43 0.42 0.41 0.46 0.53 0.58 0.61 0.54 0.53 0.60 0.61 0.60 0.64 0.66 0.65 0.63 0.61 0.56 0.52 0.58 0.63 0.64 0.60 0.57 0.57 0.55 0.52 0.50 0.49 0.52 0.59 0.59 0.52 0.40 0.37
0.39 0.43 0.50 0.48 0.47 0.44 0.40 0.37 0.36 0.37 0.37 0.41 0.41 0.44 0.46 0.49 0.49 0.45 0.48 0.47 0.49 0.56 0.58 0.53 0.51 0.54 0.52 0.49 0.52 0.54 0.50 0.46 0.44 0.42 0.43 0.43 0.44 0.43 0.44 0.48 0.54 0.56 0.54 0.46
0.34 0.32 0.34 0.35 0.35 0.33 0.32 0.34 0.33 0.33 0.33 0.36 0.36 0.37 0.37 0.37 0.36 0.32 0.33 0.38 0.53 0.61 0.56 0.48 0.43 0.45 0.45 0.48 0.52 0.51 0.45 0.40 0.35 0.33 0.33 0.35 0.36 0.38 0.43 0.43 0.43 0.50 0.52 0.45
0.34 0.34 0.33 0.29 0.26 0.26 0.26 0.24 0.22 0.24 0.26 0.29 0.29 0.26 0.25 0.26 0.28 0.29 0.33 0.39 0.45 0.49 0.46 0.43 0.38 0.32 0.35 0.41 0.46 0.42 0.36 0.34 0.30 0.28 0.30 0.32 0.32 0.35 0.38 0.36 0.39 0.43 0.39 0.35
0.31 0.27 0.24 0.23 0.20 0.20 0.20 0.17 0.17 0.21 0.23 0.23 0.22 0.22 0.21 0.24 0.28 0.29 0.31 0.36 0.40 0.38 0.35 0.30 0.29 0.28 0.26 0.30 0.38 0.35 0.32 0.32 0.27 0.25 0.27 0.30 0.32 0.33 0.31 0.32 0.33 0.34 0.33 0.31
0.23 0.16 0.14 0.16 0.15 0.15 0.17 0.15 0.16 0.18 0.18 0.19 0.19 0.19 0.19 0.21 0.23 0.24 0.28 0.35 0.40 0.41 0.34 0.24 0.24 0.23 0.21 0.22 0.27 0.28 0.27 0.29 0.28 0.27 0.26 0.28 0.30 0.33 0.30 0.27 0.28 0.30 0.29 0.29
0.16 0.12 0.13 0.13 0.12 0.13 0.16 0.15 0.16 0.17 0.17 0.17 0.17 0.17 0.20 0.20 0.16 0.20 0.28 0.37 0.41 0.37 0.29 0.25 0.20 0.18 0.17 0.18 0.20 0.22 0.25 0.27 0.26 0.24 0.25 0.27 0.29 0.29 0.25 0.23 0.27 0.29 0.31 0.33
0.15 0.13 0.13 0.14 0.13 0.13 0.16 0.16 0.16 0.16 0.16 0.16 0.17 0.17 0.18 0.18 0.15 0.20 0.30 0.40 0.36 0.28 0.24 0.23 0.21 0.18 0.16 0.17 0.19 0.21 0.22 0.23 0.22 0.21 0.23 0.28 0.28 0.25 0.23 0.24 0.24 0.28 0.31 0.34
0.15 0.15 0.16 0.16 0.15 0.16 0.16 0.16 0.16 0.18 0.17 0.18 0.17 0.14 0.17 0.20 0.19 0.22 0.27 0.30 0.26 0.21 0.19 0.18 0.17 0.16 0.16 0.16 0.15 0.17 0.20 0.22 0.21 0.23 0.25 0.23 0.23 0.22 0.22 0.23 0.25 0.27 0.28 0.31
0.19 0.19 0.20 0.18 0.17 0.15 0.15 0.18 0.21 0.20 0.19 0.17 0.15 0.15 0.17 0.21 0.21 0.23 0.24 0.20 0.16 0.17 0.17 0.16 0.15 0.14 0.14 0.12 0.13 0.17 0.19 0.19 0.19 0.21 0.21 0.22 0.23 0.24 0.26 0.25 0.26 0.27 0.31 0.33
0.28 0.29 0.23 0.18 0.17 0.20 0.20 0.19 0.19 0.18 0.17 0.15 0.14 0.14 0.16 0.18 0.20 0.20 0.21 0.19 0.18 0.17 0.14 0.14 0.14 0.12 0.12 0.11 0.13 0.16 0.18 0.17 0.16 0.16 0.17 0.19 0.20 0.21 0.23 0.26 0.26 0.27 0.27 0.28
0.36 0.38 0.30 0.23 0.23 0.25 0.22 0.20 0.17 0.15 0.13 0.12 0.11 0.13 0.14 0.16 0.17 0.19 0.22 0.22 0.22 0.20 0.16 0.14 0.13 0.12 0.12 0.13 0.15 0.17 0.16 0.15 0.13 0.13 0.12 0.15 0.17 0.17 0.19 0.22 0.23 0.22 0.23 0.23
0.42 0.38 0.32 0.29 0.26 0.24 0.20 0.21 0.19 0.15 0.14 0.13 0.12 0.12 0.13 0.16 0.18 0.21 0.23 0.22 0.23 0.20 0.17 0.15 0.15 0.15 0.15 0.16 0.15 0.14 0.14 0.12 0.11 0.10 0.10 0.13 0.16 0.17 0.18 0.19 0.20 0.20 0.22 0.23
0.48 0.40 0.36 0.32 0.26 0.22 0.22 0.24 0.23 0.19 0.16 0.16 0.16 0.16 0.16 0.18 0.20 0.20 0.21 0.23 0.22 0.18 0.16 0.15 0.15 0.15 0.16 0.15 0.13 0.14 0.15 0.13 0.11 0.12 0.14 0.15 0.18 0.21 0.21 0.19 0.18 0.20 0.22 0.22

GEFSNGP_prec_meanprecacc_246.txt.gz
Total_Precipitation_Accumulation
0.44 0.43 0.44 0.45 0.38 0.33 0.43 0.55 0.85 1.16 1.51 1.83 1.91 1.95 2.00 2.15 2.07 1.83 1.65 1.49 1.35 1.34 1.41 1.40 1.37 1.37 1.39 1.53 1.62 1.84 1.95 1.95 1.90 1.82 1.75 1.73 1.65 1.50 1.34 1.22 1.17 1.23 1.15 1.08
0.47 0.39 0.47 0.46 0.45 0.47 0.55 0.65 0.87 1.20 1.67 1.89 1.89 1.88 1.95 2.07 2.05 1.85 1.55 1.40 1.31 1.30 1.39 1.35 1.32 1.28 1.24 1.35 1.40 1.54 1.69 1.68 1.60 1.58 1.63 1.59 1.56 1.45 1.35 1.26 1.19 1.19 1.13 1.02
0.67 0.43 0.64 0.91 0.70 0.72 0.81 0.83 1.03 1.41 1.62 1.68 1.77 1.81 1.87 2.00 2.11 1.98 1.70 1.58 1.60 1.62 1.60 1.47 1.35 1.29 1.30 1.35 1.39 1.46 1.53 1.47 1.47 1.47 1.44 1.42 1.29 1.23 1.27 1.30 1.21 1.14 1.03 0.92
0.67 0.82 1.30 1.16 0.65 0.73 0.87 0.89 0.94 1.06 1.20 1.37 1.50 1.60 1.76 1.93 2.09 2.08 1.94 1.90 1.91 1.84 1.69 1.54 1.41 1.36 1.36 1.35 1.41 1.49 1.46 1.39 1.32 1.34 1.30 1.27 1.25 1.23 1.23 1.23 1.17 1.12 1.03 0.92
0.91 1.22 1.40 1.13 0.68 0.66 0.97 1.14 0.90 0.91 0.94 0.99 1.03 1.22 1.63 1.79 1.86 1.94 1.93 1.90 1.81 1.73 1.63 1.51 1.38 1.33 1.29 1.29 1.27 1.29 1.26 1.22 1.13 1.16 1.22 1.23 1.21 1.27 1.23 1.14 1.10 1.03 0.97 0.93
1.02 1.37 1.65 1.37 0.66 0.48 0.84 1.54 1.06 0.90 0.95 1.01 1.14 1.41 1.50 1.41 1.40 1.48 1.50 1.53 1.58 1.57 1.48 1.38 1.28 1.19 1.15 1.18 1.17 1.14 1.12 1.11 1.02 1.03 1.10 1.17 1.19 1.22 1.13 1.05 1.01 0.90 0.87 0.91
1.05 1.36 1.53 0.87 0.52 0.68 1.43 1.80 1.20 1.01 1.04 1.16 1.29 1.29 1.07 0.99 1.06 1.16 1.27 1.31 1.33 1.44 1.46 1.30 1.10 1.04 1.09 1.08 1.07 0.97 0.96 1.03 1.03 1.01 1.03 1.04 1.06 1.11 1.06 0.99 0.96 0.94 0.92 0.94
1.15 1.54 1.68 0.76 0.59 1.04 1.26 0.99 0.94 0.96 0.99 1.01 0.94 0.81 0.78 0.81 0.84 0.89 1.05 1.19 1.19 1.30 1.25 1.09 0.97 1.00 1.06 1.04 0.92 0.86 0.94 1.06 1.08 1.05 0.94 0.92 1.06 1.10 1.04 0.98 0.93 0.95 0.95 0.95
1.20 1.44 1.14 0.64 0.63 0.70 0.68 0.74 0.75 0.76 0.70 0.66 0.67 0.64 0.63 0.71 0.78 0.82 0.92 1.03 1.04 1.09 1.07 1.00 0.96 1.02 1.07 1.01 0.88 0.90 0.99 1.06 1.08 1.02 0.99 0.98 1.02 1.02 0.96 0.91 0.84 0.83 0.84 0.87
0.77 0.80 0.60 0.54 0.52 0.48 0.50 0.58 0.60 0.62 0.66 0.58 0.61 0.63 0.64 0.67 0.75 0.83 0.90 0.91 0.92 0.97 0.97 0.94 0.89 0.90 0.91 0.84 0.82 0.93 1.03 1.01 1.02 1.03 1.02 0.96 0.90 0.86 0.84 0.81 0.76 0.73 0.74 0.76
0.71 0.60 0.53 0.51 0.44 0.41 0.45 0.47 0.49 0.54 0.62 0.62 0.61 0.68 0.67 0.68 0.75 0.80 0.86 0.87 0.90 0.98 0.98 0.87 0.82 0.78 0.77 0.78 0.85 0.96 0.96 0.89 0.88 0.92 0.90 0.85 0.74 0.68 0.67 0.62 0.55 0.53 0.54 0.55
0.71 0.57 0.60 0.56 0.41 0.37 0.45 0.51 0.51 0.54 0.63 0.59 0.58 0.66 0.73 0.75 0.73 0.74 0.80 0.82 0.86 0.86 0.87 0.82 0.73 0.70 0.72 0.74 0.75 0.85 0.85 0.79 0.76 0.79 0.77 0.71 0.66 0.61 0.55 0.44 0.41 0.39 0.37 0.39
0.42 0.39 0.39 0.37 0.38 0.44 0.50 0.50 0.55 0.60 0.57 0.50 0.55 0.61 0.71 0.76 0.65 0.63 0.65 0.69 0.76 0.76 0.75 0.72 0.68 0.69 0.71 0.63 0.62 0.71 0.77 0.77 0.67 0.64 0.67 0.65 0.60 0.60 0.63 0.50 0.40 0.37 0.36 0.39
0.36 0.41 0.49 0.53 0.58 0.56 0.53 0.47 0.46 0.45 0.44 0.42 0.48 0.55 0.59 0.62 0.54 0.54 0.60 0.61 0.60 0.64 0.66 0.65 0.63 0.61 0.56 0.53 0.58 0.64 0.64 0.60 0.57 0.58 0.56 0.53 0.52 0.51 0.54 0.62 0.63 0.57 0.46 0.41
0.42 0.45 0.52 0.50 0.49 0.45 0.41 0.38 0.37 0.38 0.38 0.42 0.41 0.44 0.46 0.50 0.50 0.46 0.48 0.48 0.50 0.56 0.58 0.53 0.51 0.54 0.52 0.49 0.53 0.55 0.50 0.46 0.45 0.43 0.43 0.44 0.46 0.45 0.47 0.52 0.58 0.61 0.60 0.51
0.36 0.34 0.36 0.37 0.37 0.35 0.33 0.34 0.34 0.34 0.34 0.36 0.36 0.37 0.37 0.37 0.36 0.33 0.34 0.38 0.54 0.62 0.56 0.48 0.44 0.45 0.45 0.48 0.52 0.52 0.46 0.40 0.36 0.34 0.34 0.35 0.37 0.40 0.45 0.46 0.47 0.53 0.56 0.49
0.37 0.37 0.36 0.31 0.27 0.27 0.27 0.25 0.23 0.25 0.27 0.29 0.29 0.26 0.25 0.26 0.29 0.30 0.33 0.39 0.46 0.49 0.46 0.43 0.38 0.32 0.35 0.42 0.47 0.42 0.37 0.35 0.31 0.29 0.32 0.33 0.34 0.36 0.40 0.38 0.42 0.46 0.43 0.40
0.35 0.31 0.27 0.25 0.22 0.21 0.21 0.18 0.18 0.22 0.23 0.23 0.22 0.22 0.22 0.25 0.29 0.30 0.32 0.37 0.40 0.39 0.35 0.30 0.30 0.28 0.26 0.31 0.38 0.36 0.32 0.33 0.28 0.26 0.28 0.31 0.33 0.34 0.33 0.34 0.36 0.38 0.38 0.37
0.25 0.18 0.17 0.18 0.17 0.17 0.18 0.16 0.17 0.19 0.19 0.20 0.20 0.20 0.21 0.23 0.25 0.26 0.29 0.36 0.41 0.42 0.35 0.25 0.25 0.24 0.22 0.23 0.28 0.28 0.27 0.29 0.28 0.27 0.27 0.29 0.32 0.34 0.32 0.29 0.31 0.33 0.34 0.35
0.17 0.13 0.14 0.14 0.13 0.14 0.16 0.15 0.16 0.18 0.18 0.19 0.19 0.20 0.23 0.22 0.18 0.22 0.30 0.39 0.42 0.38 0.30 0.25 0.20 0.19 0.18 0.18 0.21 0.23 0.25 0.27 0.27 0.24 0.26 0.28 0.30 0.30 0.27 0.25 0.29 0.33 0.36 0.37
0.16 0.14 0.14 0.14 0.13 0.14 0.16 0.17 0.17 0.17 0.17 0.17 0.18 0.18 0.19 0.20 0.17 0.22 0.32 0.41 0.38 0.29 0.24 0.24 0.22 0.18 0.17 0.17 0.19 0.22 0.23 0.24 0.22 0.21 0.24 0.28 0.29 0.26 0.25 0.25 0.26 0.31 0.35 0.38
0.15 0.15 0.17 0.16 0.15 0.16 0.17 0.17 0.17 0.18 0.18 0.19 0.17 0.15 0.18 0.21 0.20 0.24 0.29 0.32 0.28 0.22 0.20 0.19 0.18 0.17 0.17 0.17 0.16 0.18 0.21 0.23 0.22 0.25 0.26 0.24 0.24 0.24 0.23 0.24 0.27 0.29 0.32 0.35
0.20 0.20 0.20 0.18 0.18 0.16 0.15 0.19 0.21 0.21 0.20 0.18 0.16 0.16 0.18 0.22 0.23 0.25 0.25 0.21 0.17 0.18 0.18 0.17 0.16 0.16 0.15 0.13 0.13 0.18 0.20 0.20 0.20 0.23 0.22 0.23 0.24 0.26 0.28 0.28 0.28 0.29 0.33 0.37
0.30 0.30 0.24 0.19 0.18 0.20 0.21 0.20 0.19 0.20 0.19 0.17 0.17 0.17 0.17 0.20 0.22 0.22 0.22 0.20 0.18 0.17 0.15 0.15 0.16 0.13 0.12 0.12 0.14 0.17 0.18 0.18 0.17 0.18 0.18 0.20 0.21 0.23 0.28 0.32 0.31 0.30 0.30 0.30
0.39 0.41 0.32 0.24 0.24 0.25 0.22 0.21 0.19 0.16 0.14 0.13 0.14 0.17 0.17 0.18 0.19 0.20 0.23 0.23 0.22 0.21 0.16 0.15 0.13 0.12 0.13 0.14 0.16 0.17 0.17 0.16 0.14 0.14 0.13 0.16 0.18 0.19 0.21 0.24 0.25 0.24 0.23 0.24
0.44 0.42 0.36 0.31 0.27 0.24 0.21 0.22 0.21 0.17 0.16 0.15 0.15 0.15 0.16 0.18 0.20 0.23 0.25 0.23 0.24 0.21 0.17 0.16 0.16 0.15 0.16 0.17 0.15 0.14 0.15 0.13 0.12 0.12 0.12 0.15 0.17 0.19 0.19 0.20 0.21 0.20 0.22 0.23
0.49 0.42 0.38 0.33 0.26 0.22 0.22 0.25 0.24 0.20 0.17 0.17 0.18 0.17 0.17 0.19 0.21 0.21 0.23 0.23 0.23 0.18 0.16 0.16 0.16 0.15 0.17 0.17 0.15 0.15 0.17 0.15 0.13 0.13 0.15 0.16 0.19 0.22 0.22 0.19 0.19 0.20 0.22 0.23

GEFSNGP_prec_meanprecacc_252.txt.gz
Total_Precipitation_Accumulation
0.45 0.44 0.44 0.45 0.38 0.34 0.44 0.55 0.86 1.18 1.53 1.85 1.92 1.97 2.03 2.20 2.12 1.87 1.70 1.54 1.41 1.37 1.44 1.44 1.41 1.40 1.43 1.56 1.65 1.88 1.99 1.99 1.94 1.87 1.79 1.77 1.70 1.55 1.39 1.26 1.20 1.27 1.20 1.14
0.48 0.39 0.47 0.46 0.45 0.47 0.55 0.65 0.87 1.21 1.68 1.90 1.91 1.91 1.99 2.12 2.09 1.88 1.58 1.43 1.38 1.33 1.41 1.38 1.35 1.32 1.29 1.38 1.43 1.58 1.72 1.72 1.64 1.61 1.66 1.61 1.59 1.48 1.38 1.28 1.22 1.23 1.18 1.07
0.69 0.44 0.64 0.92 0.71 0.72 0.81 0.84 1.03 1.43 1.64 1.70 1.82 1.86 1.91 2.04 2.13 2.00 1.72 1.60 1.62 1.63 1.61 1.49 1.39 1.32 1.33 1.38 1.42 1.48 1.55 1.49 1.49 1.49 1.46 1.44 1.31 1.25 1.29 1.33 1.25 1.19 1.10 0.98
0.71 0.85 1.33 1.17 0.66 0.73 0.87 0.89 0.94 1.07 1.21 1.38 1.52 1.63 1.79 1.96 2.11 2.10 1.97 1.92 1.92 1.85 1.71 1.56 1.44 1.39 1.39 1.37 1.43 1.51 1.48 1.40 1.34 1.36 1.32 1.29 1.26 1.25 1.26 1.26 1.22 1.18 1.08 0.97
0.96 1.26 1.43 1.15 0.69 0.66 0.98 1.15 0.91 0.92 0.95 1.00 1.04 1.22 1.63 1.79 1.86 1.95 1.94 1.91 1.83 1.74 1.65 1.53 1.41 1.35 1.31 1.31 1.29 1.30 1.27 1.22 1.14 1.17 1.24 1.24 1.22 1.29 1.26 1.17 1.13 1.08 1.02 0.98
1.06 1.43 1.71 1.42 0.68 0.49 0.85 1.56 1.07 0.91 0.97 1.02 1.15 1.42 1.51 1.41 1.41 1.50 1.52 1.55 1.59 1.60 1.50 1.40 1.30 1.21 1.19 1.21 1.18 1.15 1.13 1.12 1.03 1.04 1.11 1.18 1.21 1.24 1.15 1.08 1.05 0.93 0.90 0.95
1.11 1.42 1.62 0.91 0.54 0.69 1.48 1.85 1.23 1.05 1.08 1.21 1.32 1.31 1.09 1.00 1.07 1.18 1.31 1.33 1.34 1.47 1.50 1.32 1.12 1.05 1.11 1.10 1.08 0.97 0.96 1.03 1.03 1.02 1.04 1.05 1.08 1.13 1.08 1.01 0.99 0.98 0.96 0.99
1.21 1.63 1.77 0.80 0.63 1.07 1.31 1.02 0.97 1.00 1.02 1.04 0.98 0.83 0.80 0.83 0.86 0.91 1.09 1.21 1.20 1.32 1.27 1.11 0.99 1.01 1.07 1.04 0.93 0.86 0.94 1.07 1.08 1.05 0.95 0.93 1.07 1.12 1.05 1.00 0.95 0.98 0.99 1.00
1.27 1.52 1.20 0.67 0.66 0.72 0.70 0.75 0.76 0.77 0.71 0.67 0.69 0.65 0.64 0.73 0.80 0.85 0.94 1.05 1.05 1.10 1.08 1.01 0.97 1.03 1.08 1.02 0.88 0.91 1.00 1.07 1.09 1.02 0.99 0.98 1.03 1.04 0.97 0.93 0.86 0.86 0.87 0.90
0.83 0.87 0.64 0.57 0.55 0.53 0.53 0.60 0.60 0.63 0.66 0.58 0.61 0.64 0.64 0.67 0.76 0.85 0.91 0.92 0.93 0.98 0.98 0.95 0.90 0.90 0.92 0.84 0.83 0.94 1.04 1.03 1.03 1.04 1.03 0.96 0.92 0.88 0.85 0.83 0.78 0.75 0.77 0.79
0.77 0.65 0.57 0.55 0.47 0.47 0.52 0.51 0.51 0.54 0.62 0.63 0.62 0.70 0.68 0.70 0.76 0.82 0.87 0.88 0.91 0.98 0.99 0.88 0.82 0.79 0.77 0.79 0.86 0.97 0.98 0.91 0.89 0.92 0.90 0.86 0.76 0.70 0.69 0.64 0.56 0.55 0.56 0.58
0.75 0.61 0.65 0.60 0.44 0.40 0.50 0.54 0.51 0.54 0.64 0.61 0.60 0.69 0.75 0.77 0.75 0.76 0.81 0.83 0.87 0.87 0.88 0.83 0.74 0.71 0.73 0.75 0.76 0.87 0.86 0.81 0.77 0.79 0.78 0.72 0.69 0.64 0.57 0.46 0.43 0.40 0.39 0.41
0.45 0.41 0.42 0.39 0.40 0.46 0.54 0.52 0.55 0.60 0.58 0.52 0.58 0.66 0.75 0.79 0.68 0.65 0.67 0.70 0.76 0.77 0.75 0.73 0.68 0.70 0.71 0.63 0.64 0.73 0.79 0.78 0.68 0.64 0.68 0.67 0.63 0.64 0.66 0.52 0.42 0.39 0.38 0.41
0.39 0.43 0.51 0.55 0.60 0.57 0.54 0.47 0.46 0.45 0.45 0.44 0.49 0.58 0.62 0.65 0.57 0.55 0.62 0.62 0.61 0.65 0.66 0.66 0.64 0.62 0.57 0.53 0.60 0.65 0.65 0.61 0.58 0.59 0.58 0.55 0.55 0.55 0.58 0.65 0.65 0.59 0.47 0.44
0.44 0.47 0.54 0.52 0.51 0.46 0.42 0.38 0.38 0.39 0.39 0.42 0.42 0.45 0.47 0.51 0.51 0.47 0.49 0.49 0.51 0.57 0.59 0.54 0.51 0.55 0.53 0.50 0.54 0.56 0.51 0.47 0.46 0.44 0.45 0.46 0.48 0.48 0.50 0.55 0.61 0.64 0.62 0.54
0.39 0.36 0.37 0.39 0.38 0.36 0.34 0.35 0.35 0.35 0.35 0.37 0.38 0.38 0.38 0.37 0.37 0.34 0.34 0.39 0.55 0.63 0.57 0.49 0.45 0.45 0.46 0.49 0.54 0.53 0.47 0.41 0.37 0.34 0.35 0.37 0.40 0.43 0.49 0.50 0.51 0.57 0.60 0.53
0.40 0.39 0.37 0.32 0.28 0.28 0.27 0.26 0.24 0.26 0.28 0.30 0.30 0.27 0.26 0.27 0.30 0.31 0.34 0.40 0.47 0.51 0.48 0.45 0.39 0.33 0.36 0.43 0.48 0.43 0.37 0.35 0.32 0.29 0.33 0.35 0.35 0.39 0.45 0.44 0.48 0.51 0.49 0.45
0.36 0.32 0.28 0.26 0.23 0.22 0.22 0.19 0.18 0.23 0.24 0.24 0.23 0.23 0.22 0.26 0.31 0.32 0.34 0.39 0.42 0.41 0.37 0.32 0.31 0.29 0.27 0.32 0.39 0.36 0.33 0.34 0.28 0.27 0.29 0.32 0.34 0.37 0.37 0.40 0.42 0.43 0.43 0.41
0.26 0.20 0.18 0.19 0.18 0.18 0.19 0.16 0.17 0.19 0.20 0.21 0.22 0.22 0.22 0.25 0.27 0.28 0.32 0.40 0.44 0.45 0.38 0.27 0.26 0.25 0.22 0.24 0.29 0.29 0.28 0.30 0.29 0.27 0.28 0.30 0.33 0.36 0.35 0.32 0.35 0.38 0.39 0.39
0.19 0.15 0.15 0.16 0.14 0.14 0.17 0.16 0.17 0.18 0.19 0.20 0.21 0.23 0.26 0.26 0.22 0.27 0.34 0.43 0.46 0.41 0.32 0.27 0.21 0.19 0.19 0.19 0.22 0.23 0.26 0.28 0.27 0.25 0.27 0.29 0.32 0.31 0.28 0.27 0.33 0.38 0.40 0.42
0.17 0.15 0.15 0.15 0.14 0.15 0.17 0.18 0.18 0.18 0.17 0.18 0.20 0.21 0.23 0.24 0.21 0.27 0.37 0.46 0.41 0.32 0.26 0.25 0.22 0.19 0.18 0.18 0.20 0.22 0.24 0.25 0.23 0.22 0.25 0.30 0.30 0.27 0.26 0.26 0.28 0.34 0.39 0.42
0.16 0.16 0.18 0.17 0.16 0.17 0.17 0.17 0.18 0.19 0.18 0.19 0.18 0.17 0.21 0.24 0.24 0.28 0.33 0.36 0.31 0.26 0.22 0.20 0.19 0.18 0.18 0.17 0.16 0.18 0.21 0.24 0.23 0.25 0.27 0.25 0.25 0.25 0.25 0.26 0.29 0.31 0.35 0.39
0.21 0.21 0.21 0.19 0.19 0.17 0.16 0.20 0.22 0.22 0.21 0.19 0.17 0.17 0.20 0.23 0.24 0.26 0.27 0.22 0.19 0.21 0.21 0.19 0.18 0.18 0.16 0.14 0.14 0.18 0.21 0.21 0.22 0.24 0.23 0.24 0.25 0.28 0.31 0.30 0.30 0.31 0.36 0.40
0.30 0.31 0.25 0.19 0.19 0.21 0.21 0.20 0.20 0.21 0.20 0.18 0.17 0.18 0.18 0.21 0.22 0.22 0.23 0.21 0.20 0.19 0.17 0.17 0.18 0.15 0.14 0.13 0.15 0.18 0.20 0.19 0.18 0.19 0.19 0.21 0.22 0.24 0.30 0.35 0.33 0.32 0.32 0.32
0.41 0.42 0.33 0.25 0.25 0.26 0.23 0.21 0.19 0.17 0.15 0.14 0.14 0.17 0.18 0.19 0.19 0.21 0.24 0.23 0.24 0.22 0.17 0.16 0.14 0.14 0.14 0.16 0.18 0.19 0.18 0.17 0.15 0.15 0.14 0.18 0.20 0.20 0.23 0.26 0.27 0.26 0.26 0.26
0.46 0.44 0.38 0.33 0.29 0.26 0.22 0.23 0.21 0.18 0.16 0.16 0.15 0.15 0.17 0.19 0.21 0.24 0.26 0.24 0.25 0.22 0.18 0.16 0.16 0.16 0.17 0.18 0.17 0.16 0.17 0.15 0.14 0.13 0.13 0.16 0.18 0.20 0.20 0.22 0.22 0.21 0.24 0.25
0.50 0.43 0.39 0.34 0.28 0.23 0.23 0.26 0.24 0.20 0.17 0.18 0.19 0.18 0.18 0.20 0.22 0.22 0.23 0.24 0.23 0.20 0.18 0.17 0.17 0.16 0.17 0.18 0.16 0.16 0.18 0.16 0.14 0.14 0.16 0.17 0.20 0.23 0.24 0.21 0.21 0.22 0.25 0.26

GEFSNGP_prec_meanprecacc_258.txt.gz
Total_Precipitation_Accumulation
0.45 0.44 0.45 0.46 0.39 0.36 0.47 0.58 0.89 1.19 1.54 1.87 1.94 1.99 2.05 2.22 2.14 1.89 1.73 1.57 1.43 1.40 1.47 1.49 1.45 1.44 1.47 1.62 1.70 1.92 2.04 2.04 1.99 1.91 1.84 1.81 1.75 1.60 1.44 1.30 1.25 1.32 1.26 1.20
0.48 0.39 0.48 0.47 0.46 0.49 0.57 0.66 0.89 1.22 1.69 1.92 1.92 1.94 2.02 2.14 2.11 1.91 1.61 1.46 1.41 1.36 1.47 1.42 1.38 1.34 1.32 1.45 1.49 1.62 1.75 1.75 1.68 1.66 1.70 1.65 1.63 1.52 1.42 1.31 1.25 1.27 1.23 1.12
0.69 0.44 0.65 0.94 0.73 0.74 0.82 0.85 1.04 1.44 1.66 1.73 1.84 1.88 1.93 2.07 2.16 2.04 1.76 1.63 1.64 1.67 1.67 1.52 1.41 1.34 1.37 1.43 1.47 1.53 1.60 1.54 1.54 1.54 1.50 1.48 1.35 1.29 1.33 1.36 1.29 1.22 1.13 1.02
0.72 0.86 1.35 1.19 0.68 0.75 0.89 0.91 0.96 1.09 1.23 1.41 1.54 1.65 1.82 1.99 2.13 2.12 1.99 1.94 1.94 1.88 1.74 1.59 1.47 1.42 1.42 1.42 1.47 1.56 1.53 1.45 1.38 1.39 1.34 1.31 1.29 1.28 1.28 1.29 1.25 1.21 1.11 1.00
1.00 1.30 1.46 1.18 0.72 0.70 1.03 1.19 0.94 0.96 0.99 1.04 1.07 1.25 1.66 1.81 1.88 1.97 1.96 1.93 1.84 1.76 1.66 1.55 1.44 1.39 1.34 1.35 1.34 1.35 1.30 1.25 1.16 1.20 1.26 1.27 1.24 1.31 1.29 1.20 1.15 1.09 1.03 1.00
1.15 1.53 1.77 1.47 0.72 0.54 0.94 1.64 1.15 0.96 1.01 1.06 1.18 1.45 1.53 1.42 1.42 1.51 1.54 1.57 1.61 1.62 1.52 1.42 1.32 1.24 1.22 1.25 1.23 1.19 1.16 1.14 1.04 1.05 1.12 1.20 1.22 1.25 1.16 1.09 1.06 0.94 0.91 0.96
1.19 1.55 1.71 0.97 0.58 0.74 1.59 1.95 1.32 1.10 1.13 1.25 1.35 1.33 1.10 1.02 1.08 1.20 1.33 1.35 1.35 1.49 1.52 1.34 1.14 1.08 1.15 1.14 1.12 1.00 0.98 1.04 1.04 1.03 1.04 1.06 1.08 1.13 1.09 1.02 1.00 0.99 0.98 1.00
1.28 1.73 1.87 0.86 0.69 1.14 1.39 1.10 1.04 1.06 1.08 1.10 1.01 0.86 0.83 0.85 0.88 0.93 1.12 1.24 1.23 1.35 1.29 1.12 1.00 1.04 1.10 1.08 0.96 0.89 0.95 1.08 1.09 1.06 0.95 0.93 1.07 1.13 1.06 1.01 0.96 1.00 1.01 1.01
1.36 1.61 1.27 0.72 0.71 0.77 0.74 0.80 0.81 0.80 0.75 0.70 0.72 0.69 0.69 0.76 0.83 0.88 0.98 1.09 1.10 1.15 1.12 1.03 0.98 1.04 1.09 1.04 0.91 0.93 1.02 1.08 1.10 1.03 1.00 0.99 1.04 1.05 0.98 0.95 0.88 0.87 0.89 0.92
0.96 0.97 0.71 0.62 0.60 0.58 0.57 0.64 0.64 0.67 0.72 0.62 0.64 0.66 0.66 0.70 0.79 0.88 0.94 0.97 0.97 1.03 1.02 0.97 0.90 0.91 0.93 0.86 0.84 0.96 1.06 1.04 1.03 1.04 1.03 0.97 0.92 0.89 0.86 0.85 0.80 0.76 0.78 0.81
0.86 0.74 0.64 0.62 0.55 0.54 0.58 0.56 0.54 0.58 0.68 0.68 0.65 0.71 0.70 0.71 0.77 0.83 0.90 0.92 0.94 1.01 1.01 0.90 0.84 0.80 0.79 0.80 0.87 0.98 0.99 0.91 0.90 0.93 0.90 0.87 0.76 0.71 0.70 0.65 0.58 0.56 0.57 0.59
0.82 0.67 0.73 0.70 0.53 0.46 0.55 0.59 0.57 0.59 0.68 0.66 0.64 0.71 0.77 0.79 0.77 0.77 0.84 0.87 0.90 0.89 0.89 0.84 0.76 0.72 0.74 0.76 0.77 0.88 0.87 0.82 0.78 0.80 0.79 0.73 0.69 0.64 0.58 0.47 0.44 0.41 0.39 0.41
0.53 0.48 0.49 0.47 0.46 0.52 0.59 0.59 0.63 0.67 0.61 0.55 0.61 0.68 0.76 0.82 0.72 0.68 0.70 0.74 0.79 0.78 0.76 0.74 0.70 0.71 0.72 0.64 0.65 0.75 0.80 0.79 0.69 0.66 0.69 0.68 0.64 0.65 0.67 0.53 0.43 0.40 0.39 0.41
0.42 0.47 0.56 0.59 0.64 0.62 0.58 0.55 0.56 0.55 0.48 0.45 0.51 0.59 0.64 0.67 0.62 0.61 0.66 0.66 0.62 0.66 0.67 0.67 0.65 0.63 0.58 0.54 0.61 0.67 0.67 0.63 0.60 0.60 0.59 0.56 0.56 0.56 0.59 0.66 0.66 0.60 0.48 0.45
0.48 0.51 0.58 0.56 0.54 0.50 0.46 0.43 0.44 0.45 0.41 0.45 0.44 0.47 0.49 0.52 0.53 0.51 0.53 0.51 0.52 0.58 0.60 0.55 0.53 0.56 0.54 0.52 0.56 0.58 0.53 0.49 0.48 0.46 0.46 0.48 0.50 0.49 0.51 0.56 0.62 0.65 0.63 0.55
0.43 0.41 0.42 0.44 0.43 0.41 0.39 0.40 0.40 0.41 0.38 0.40 0.40 0.40 0.39 0.39 0.38 0.35 0.36 0.40 0.57 0.64 0.58 0.50 0.47 0.48 0.48 0.51 0.56 0.55 0.49 0.43 0.39 0.37 0.37 0.39 0.41 0.45 0.50 0.51 0.52 0.58 0.61 0.55
0.43 0.43 0.40 0.37 0.33 0.32 0.30 0.28 0.29 0.33 0.32 0.34 0.34 0.30 0.29 0.29 0.32 0.32 0.36 0.43 0.50 0.52 0.49 0.46 0.42 0.35 0.38 0.45 0.50 0.45 0.39 0.37 0.34 0.31 0.35 0.36 0.37 0.40 0.46 0.45 0.49 0.53 0.50 0.47
0.39 0.35 0.30 0.28 0.26 0.25 0.24 0.21 0.21 0.27 0.30 0.30 0.29 0.28 0.27 0.30 0.34 0.34 0.36 0.41 0.44 0.43 0.39 0.34 0.32 0.31 0.29 0.34 0.41 0.38 0.34 0.34 0.29 0.28 0.30 0.33 0.36 0.38 0.39 0.42 0.44 0.44 0.44 0.43
0.28 0.22 0.20 0.21 0.20 0.20 0.21 0.18 0.19 0.22 0.23 0.26 0.28 0.28 0.29 0.31 0.32 0.32 0.35 0.42 0.47 0.47 0.39 0.28 0.28 0.27 0.24 0.26 0.30 0.30 0.29 0.31 0.30 0.28 0.29 0.32 0.35 0.39 0.37 0.35 0.37 0.40 0.42 0.41
0.20 0.16 0.17 0.17 0.15 0.16 0.18 0.17 0.18 0.20 0.21 0.23 0.26 0.29 0.32 0.31 0.27 0.30 0.38 0.47 0.49 0.44 0.35 0.29 0.24 0.22 0.21 0.21 0.23 0.24 0.26 0.29 0.28 0.26 0.27 0.31 0.34 0.33 0.30 0.29 0.35 0.40 0.43 0.44
0.19 0.16 0.16 0.17 0.16 0.16 0.18 0.19 0.19 0.19 0.18 0.20 0.23 0.25 0.28 0.28 0.24 0.30 0.40 0.51 0.46 0.37 0.30 0.29 0.26 0.21 0.20 0.20 0.21 0.23 0.24 0.25 0.24 0.24 0.26 0.32 0.32 0.28 0.27 0.28 0.30 0.36 0.41 0.45
0.17 0.17 0.19 0.18 0.18 0.18 0.19 0.19 0.19 0.20 0.20 0.21 0.21 0.21 0.25 0.29 0.27 0.30 0.34 0.39 0.37 0.30 0.25 0.23 0.21 0.21 0.20 0.19 0.17 0.19 0.22 0.24 0.23 0.26 0.28 0.26 0.26 0.27 0.28 0.29 0.31 0.33 0.36 0.41
0.21 0.21 0.22 0.20 0.20 0.18 0.17 0.20 0.23 0.23 0.22 0.21 0.19 0.21 0.24 0.28 0.28 0.28 0.28 0.24 0.22 0.24 0.23 0.20 0.20 0.20 0.17 0.15 0.15 0.19 0.21 0.22 0.22 0.24 0.24 0.26 0.27 0.30 0.34 0.32 0.31 0.32 0.38 0.42
0.31 0.32 0.25 0.20 0.20 0.22 0.22 0.21 0.21 0.21 0.21 0.19 0.19 0.19 0.21 0.24 0.26 0.24 0.24 0.22 0.22 0.21 0.18 0.18 0.20 0.17 0.15 0.13 0.16 0.18 0.20 0.20 0.19 0.20 0.21 0.22 0.23 0.25 0.31 0.35 0.34 0.33 0.34 0.34
0.42 0.43 0.34 0.26 0.26 0.27 0.24 0.22 0.21 0.18 0.16 0.15 0.16 0.19 0.20 0.21 0.21 0.22 0.25 0.25 0.26 0.24 0.19 0.17 0.16 0.15 0.15 0.17 0.19 0.20 0.20 0.19 0.18 0.17 0.16 0.19 0.21 0.21 0.23 0.27 0.28 0.27 0.27 0.29
0.47 0.45 0.39 0.34 0.30 0.26 0.23 0.24 0.23 0.20 0.18 0.17 0.16 0.16 0.17 0.20 0.23 0.25 0.27 0.25 0.27 0.24 0.21 0.19 0.18 0.18 0.18 0.20 0.19 0.20 0.20 0.18 0.15 0.14 0.14 0.17 0.19 0.21 0.21 0.23 0.23 0.23 0.25 0.27
0.52 0.44 0.40 0.35 0.29 0.25 0.25 0.27 0.26 0.22 0.18 0.19 0.20 0.18 0.19 0.21 0.23 0.23 0.24 0.25 0.24 0.21 0.19 0.19 0.18 0.17 0.19 0.19 0.18 0.20 0.22 0.20 0.16 0.16 0.17 0.18 0.21 0.24 0.24 0.22 0.22 0.23 0.26 0.27

GEFSNGP_prec_meanprecacc_264.txt.gz
Total_Precipitation_Accumulation
0.46 0.45 0.46 0.46 0.40 0.36 0.48 0.59 0.89 1.19 1.54 1.88 1.94 2.00 2.06 2.24 2.16 1.91 1.75 1.60 1.46 1.43 1.51 1.52 1.48 1.47 1.50 1.64 1.72 1.95 2.06 2.07 2.03 1.96 1.88 1.85 1.78 1.63 1.47 1.34 1.29 1.37 1.32 1.27
0.48 0.40 0.49 0.48 0.47 0.49 0.57 0.67 0.90 1.23 1.70 1.93 1.94 1.96 2.03 2.15 2.12 1.92 1.63 1.48 1.43 1.38 1.49 1.46 1.41 1.37 1.34 1.47 1.50 1.64 1.77 1.78 1.72 1.70 1.74 1.69 1.66 1.55 1.45 1.35 1.28 1.30 1.27 1.18
0.70 0.45 0.66 0.95 0.74 0.75 0.83 0.86 1.06 1.46 1.67 1.74 1.85 1.89 1.94 2.07 2.17 2.05 1.77 1.64 1.66 1.68 1.69 1.54 1.42 1.35 1.39 1.46 1.48 1.55 1.62 1.57 1.58 1.58 1.55 1.52 1.38 1.32 1.36 1.39 1.32 1.25 1.17 1.06
0.73 0.87 1.36 1.21 0.69 0.77 0.91 0.93 0.97 1.10 1.24 1.41 1.55 1.66 1.83 2.00 2.14 2.13 2.00 1.95 1.96 1.90 1.76 1.61 1.48 1.44 1.46 1.45 1.49 1.58 1.56 1.49 1.44 1.44 1.38 1.35 1.32 1.31 1.31 1.31 1.28 1.23 1.13 1.02
1.02 1.31 1.47 1.19 0.74 0.71 1.04 1.20 0.95 0.96 0.99 1.04 1.07 1.26 1.67 1.82 1.89 1.98 1.97 1.94 1.86 1.77 1.68 1.57 1.46 1.41 1.38 1.39 1.38 1.38 1.34 1.31 1.24 1.25 1.30 1.30 1.27 1.34 1.32 1.23 1.18 1.12 1.05 1.02
1.17 1.55 1.79 1.49 0.73 0.55 0.96 1.65 1.16 0.96 1.01 1.07 1.20 1.47 1.55 1.44 1.44 1.53 1.56 1.59 1.63 1.64 1.54 1.44 1.35 1.27 1.26 1.29 1.28 1.24 1.21 1.21 1.11 1.10 1.15 1.23 1.25 1.28 1.20 1.13 1.09 0.97 0.93 0.98
1.22 1.58 1.74 0.98 0.59 0.76 1.61 1.97 1.34 1.12 1.14 1.27 1.37 1.35 1.12 1.03 1.10 1.21 1.34 1.36 1.37 1.50 1.54 1.37 1.18 1.14 1.20 1.19 1.17 1.06 1.04 1.10 1.09 1.06 1.07 1.08 1.10 1.16 1.12 1.05 1.03 1.01 0.99 1.01
1.31 1.75 1.89 0.87 0.71 1.17 1.41 1.11 1.06 1.07 1.09 1.11 1.03 0.88 0.84 0.86 0.89 0.94 1.12 1.25 1.24 1.37 1.34 1.18 1.05 1.09 1.16 1.14 1.03 0.94 1.01 1.12 1.12 1.08 0.97 0.95 1.09 1.14 1.08 1.03 0.98 1.02 1.03 1.03
1.38 1.62 1.28 0.73 0.74 0.81 0.78 0.83 0.83 0.82 0.76 0.71 0.73 0.70 0.70 0.78 0.84 0.88 0.98 1.10 1.11 1.17 1.17 1.08 1.02 1.07 1.12 1.08 0.96 0.99 1.06 1.11 1.12 1.04 1.01 1.00 1.06 1.06 1.00 0.97 0.89 0.89 0.91 0.94
1.00 1.00 0.73 0.65 0.63 0.62 0.61 0.67 0.67 0.68 0.73 0.62 0.64 0.66 0.67 0.71 0.80 0.89 0.95 0.98 0.98 1.05 1.06 1.01 0.93 0.94 0.95 0.88 0.87 1.00 1.09 1.06 1.05 1.06 1.04 0.98 0.94 0.91 0.88 0.87 0.81 0.78 0.80 0.82
0.92 0.78 0.67 0.64 0.56 0.56 0.63 0.62 0.59 0.61 0.70 0.69 0.66 0.72 0.71 0.72 0.79 0.85 0.92 0.93 0.96 1.04 1.05 0.93 0.86 0.82 0.80 0.81 0.88 1.00 1.01 0.93 0.91 0.94 0.92 0.88 0.78 0.73 0.72 0.67 0.59 0.58 0.59 0.60
0.90 0.74 0.78 0.72 0.55 0.48 0.59 0.69 0.64 0.64 0.71 0.68 0.65 0.71 0.78 0.80 0.78 0.81 0.88 0.91 0.95 0.93 0.93 0.87 0.78 0.74 0.76 0.78 0.79 0.90 0.89 0.83 0.79 0.81 0.80 0.74 0.70 0.66 0.60 0.49 0.46 0.43 0.41 0.43
0.61 0.54 0.53 0.51 0.51 0.56 0.64 0.68 0.68 0.71 0.64 0.57 0.65 0.70 0.78 0.83 0.74 0.72 0.76 0.82 0.89 0.84 0.80 0.77 0.73 0.73 0.74 0.66 0.66 0.75 0.81 0.80 0.70 0.67 0.70 0.69 0.65 0.67 0.70 0.56 0.46 0.42 0.41 0.43
0.48 0.52 0.60 0.63 0.70 0.70 0.68 0.65 0.63 0.59 0.53 0.49 0.56 0.66 0.68 0.69 0.64 0.65 0.71 0.73 0.72 0.73 0.73 0.70 0.68 0.65 0.59 0.55 0.62 0.68 0.68 0.64 0.61 0.61 0.61 0.58 0.58 0.58 0.61 0.69 0.69 0.62 0.50 0.46
0.52 0.56 0.62 0.60 0.60 0.59 0.57 0.54 0.52 0.51 0.47 0.50 0.49 0.53 0.56 0.57 0.56 0.54 0.58 0.56 0.57 0.64 0.65 0.59 0.56 0.59 0.56 0.53 0.57 0.59 0.54 0.51 0.50 0.48 0.48 0.50 0.52 0.51 0.53 0.58 0.64 0.66 0.64 0.56
0.46 0.44 0.45 0.47 0.47 0.47 0.49 0.49 0.47 0.47 0.43 0.45 0.45 0.45 0.46 0.46 0.44 0.38 0.39 0.44 0.60 0.69 0.62 0.53 0.50 0.51 0.51 0.53 0.57 0.56 0.51 0.45 0.41 0.39 0.39 0.41 0.43 0.47 0.52 0.52 0.53 0.59 0.61 0.56
0.47 0.46 0.43 0.39 0.35 0.35 0.34 0.34 0.34 0.38 0.38 0.39 0.39 0.35 0.34 0.35 0.38 0.37 0.39 0.45 0.52 0.57 0.53 0.48 0.44 0.38 0.40 0.47 0.52 0.46 0.40 0.38 0.35 0.33 0.36 0.39 0.39 0.43 0.48 0.47 0.50 0.54 0.52 0.49
0.43 0.38 0.33 0.31 0.28 0.27 0.26 0.23 0.24 0.30 0.34 0.35 0.33 0.32 0.32 0.34 0.39 0.38 0.39 0.43 0.46 0.45 0.41 0.36 0.34 0.32 0.31 0.35 0.43 0.39 0.35 0.35 0.30 0.28 0.31 0.34 0.37 0.39 0.40 0.43 0.45 0.45 0.46 0.45
0.31 0.25 0.24 0.25 0.23 0.22 0.22 0.19 0.21 0.24 0.26 0.30 0.33 0.33 0.34 0.35 0.37 0.37 0.39 0.46 0.49 0.50 0.42 0.31 0.32 0.30 0.27 0.28 0.32 0.31 0.30 0.31 0.30 0.29 0.29 0.32 0.35 0.39 0.38 0.36 0.38 0.41 0.42 0.42
0.23 0.20 0.20 0.20 0.17 0.17 0.20 0.18 0.20 0.22 0.23 0.25 0.29 0.34 0.37 0.36 0.31 0.35 0.43 0.51 0.52 0.47 0.37 0.32 0.27 0.25 0.23 0.24 0.26 0.27 0.29 0.31 0.30 0.27 0.28 0.32 0.34 0.34 0.31 0.29 0.35 0.40 0.44 0.45
0.21 0.20 0.19 0.19 0.18 0.19 0.21 0.21 0.21 0.22 0.21 0.22 0.25 0.29 0.33 0.34 0.30 0.36 0.46 0.56 0.50 0.40 0.32 0.31 0.28 0.24 0.22 0.22 0.23 0.25 0.26 0.27 0.25 0.25 0.27 0.33 0.33 0.29 0.28 0.29 0.31 0.38 0.42 0.46
0.18 0.19 0.21 0.21 0.20 0.21 0.21 0.21 0.22 0.23 0.22 0.23 0.22 0.22 0.27 0.32 0.31 0.35 0.40 0.45 0.43 0.34 0.28 0.26 0.24 0.23 0.22 0.21 0.20 0.22 0.24 0.26 0.25 0.27 0.29 0.27 0.28 0.28 0.29 0.30 0.31 0.34 0.37 0.42
0.22 0.22 0.23 0.22 0.22 0.21 0.20 0.24 0.27 0.26 0.25 0.23 0.21 0.22 0.26 0.30 0.30 0.32 0.32 0.28 0.26 0.28 0.26 0.24 0.24 0.23 0.20 0.17 0.18 0.22 0.24 0.24 0.24 0.26 0.25 0.27 0.28 0.31 0.34 0.33 0.32 0.33 0.39 0.43
0.32 0.32 0.26 0.21 0.21 0.24 0.25 0.24 0.24 0.25 0.24 0.22 0.21 0.22 0.24 0.27 0.29 0.27 0.27 0.26 0.27 0.25 0.21 0.21 0.22 0.20 0.17 0.16 0.18 0.21 0.22 0.22 0.21 0.21 0.21 0.22 0.23 0.26 0.32 0.36 0.35 0.34 0.35 0.35
0.42 0.44 0.35 0.28 0.27 0.29 0.26 0.23 0.22 0.20 0.18 0.18 0.18 0.21 0.22 0.23 0.23 0.24 0.27 0.28 0.32 0.31 0.24 0.21 0.18 0.17 0.17 0.19 0.22 0.23 0.21 0.20 0.19 0.18 0.16 0.20 0.22 0.22 0.24 0.28 0.29 0.28 0.28 0.29
0.48 0.46 0.40 0.36 0.32 0.28 0.24 0.25 0.24 0.21 0.19 0.18 0.17 0.17 0.19 0.22 0.24 0.27 0.29 0.29 0.32 0.30 0.25 0.22 0.21 0.20 0.20 0.23 0.23 0.23 0.22 0.19 0.16 0.15 0.15 0.17 0.20 0.21 0.22 0.23 0.23 0.23 0.25 0.27
0.54 0.45 0.41 0.36 0.30 0.26 0.26 0.29 0.27 0.23 0.19 0.20 0.21 0.20 0.20 0.22 0.24 0.24 0.25 0.27 0.27 0.24 0.23 0.22 0.21 0.20 0.21 0.22 0.22 0.24 0.25 0.21 0.17 0.16 0.17 0.18 0.21 0.25 0.25 0.22 0.22 0.24 0.26 0.27

GEFSNGP_prec_meanprecacc_270.txt.gz
Total_Precipitation_Accumulation
0.46 0.45 0.46 0.47 0.40 0.37 0.49 0.59 0.91 1.21 1.55 1.88 1.95 2.00 2.07 2.24 2.17 1.91 1.76 1.61 1.48 1.48 1.53 1.54 1.50 1.50 1.53 1.67 1.75 1.97 2.09 2.09 2.05 1.98 1.91 1.89 1.82 1.67 1.50 1.37 1.33 1.42 1.37 1.33
0.49 0.40 0.49 0.49 0.48 0.51 0.58 0.68 0.91 1.24 1.71 1.94 1.95 1.97 2.04 2.16 2.13 1.93 1.63 1.49 1.44 1.42 1.52 1.47 1.42 1.39 1.36 1.49 1.52 1.65 1.79 1.79 1.73 1.72 1.76 1.72 1.70 1.58 1.48 1.37 1.31 1.33 1.31 1.22
0.71 0.46 0.68 0.96 0.74 0.75 0.84 0.87 1.06 1.47 1.68 1.75 1.86 1.90 1.95 2.08 2.18 2.06 1.78 1.65 1.68 1.72 1.72 1.54 1.42 1.37 1.41 1.47 1.50 1.56 1.63 1.58 1.59 1.59 1.56 1.53 1.40 1.35 1.39 1.42 1.34 1.28 1.19 1.08
0.74 0.88 1.39 1.22 0.69 0.77 0.93 0.95 0.98 1.11 1.24 1.42 1.55 1.67 1.83 2.00 2.16 2.15 2.02 1.97 1.98 1.94 1.81 1.62 1.49 1.45 1.47 1.47 1.51 1.59 1.57 1.50 1.45 1.45 1.40 1.37 1.35 1.33 1.34 1.34 1.30 1.25 1.14 1.04
1.03 1.33 1.48 1.20 0.74 0.72 1.06 1.23 0.96 0.97 0.99 1.04 1.08 1.26 1.68 1.83 1.90 2.00 1.99 1.97 1.89 1.82 1.72 1.60 1.48 1.43 1.40 1.41 1.39 1.40 1.35 1.32 1.25 1.27 1.32 1.33 1.30 1.36 1.35 1.26 1.21 1.14 1.08 1.04
1.19 1.58 1.80 1.50 0.74 0.56 0.98 1.69 1.17 0.97 1.02 1.07 1.20 1.47 1.56 1.45 1.45 1.55 1.57 1.61 1.67 1.68 1.58 1.48 1.39 1.30 1.28 1.32 1.31 1.27 1.23 1.23 1.14 1.13 1.19 1.26 1.28 1.31 1.23 1.17 1.14 1.02 0.97 1.00
1.24 1.60 1.75 0.99 0.59 0.77 1.63 2.00 1.35 1.13 1.15 1.28 1.38 1.36 1.13 1.04 1.11 1.22 1.35 1.37 1.39 1.52 1.56 1.40 1.20 1.15 1.23 1.21 1.20 1.08 1.06 1.13 1.12 1.10 1.11 1.12 1.14 1.19 1.15 1.10 1.09 1.07 1.05 1.05
1.32 1.77 1.91 0.88 0.72 1.20 1.44 1.13 1.07 1.08 1.11 1.13 1.04 0.89 0.85 0.87 0.90 0.95 1.13 1.25 1.25 1.38 1.34 1.19 1.06 1.10 1.19 1.17 1.06 0.98 1.04 1.16 1.15 1.13 1.02 1.00 1.13 1.18 1.12 1.09 1.04 1.07 1.07 1.06
1.40 1.65 1.31 0.75 0.76 0.84 0.80 0.85 0.84 0.83 0.77 0.73 0.74 0.72 0.71 0.79 0.85 0.89 0.99 1.11 1.11 1.18 1.18 1.09 1.03 1.08 1.14 1.11 1.00 1.04 1.12 1.17 1.18 1.10 1.08 1.08 1.11 1.12 1.05 1.02 0.94 0.93 0.94 0.96
1.04 1.04 0.76 0.67 0.66 0.65 0.64 0.69 0.68 0.70 0.74 0.64 0.66 0.67 0.68 0.71 0.81 0.90 0.96 0.98 0.99 1.06 1.07 1.02 0.94 0.94 0.97 0.91 0.91 1.05 1.17 1.15 1.14 1.13 1.11 1.06 1.01 0.97 0.94 0.92 0.86 0.81 0.82 0.85
0.97 0.82 0.71 0.67 0.59 0.60 0.65 0.64 0.62 0.63 0.71 0.70 0.67 0.74 0.72 0.73 0.80 0.87 0.93 0.93 0.98 1.06 1.05 0.94 0.86 0.82 0.81 0.84 0.93 1.04 1.06 1.00 0.98 1.01 0.99 0.94 0.83 0.77 0.75 0.70 0.62 0.60 0.60 0.62
0.99 0.81 0.84 0.77 0.60 0.54 0.65 0.77 0.69 0.67 0.73 0.69 0.66 0.73 0.80 0.82 0.80 0.82 0.90 0.93 0.99 0.97 0.94 0.88 0.78 0.74 0.77 0.80 0.82 0.92 0.92 0.86 0.83 0.85 0.84 0.78 0.73 0.67 0.62 0.51 0.47 0.44 0.42 0.43
0.70 0.62 0.60 0.57 0.57 0.63 0.73 0.75 0.71 0.73 0.66 0.59 0.67 0.72 0.79 0.84 0.75 0.74 0.79 0.87 0.96 0.90 0.83 0.79 0.74 0.74 0.75 0.68 0.68 0.77 0.83 0.82 0.72 0.68 0.72 0.70 0.66 0.68 0.71 0.57 0.46 0.43 0.41 0.44
0.54 0.61 0.69 0.73 0.81 0.81 0.79 0.72 0.67 0.63 0.55 0.50 0.57 0.67 0.70 0.71 0.66 0.67 0.74 0.77 0.77 0.78 0.75 0.72 0.70 0.68 0.61 0.57 0.64 0.70 0.69 0.66 0.63 0.62 0.62 0.59 0.59 0.59 0.62 0.70 0.70 0.62 0.51 0.47
0.57 0.63 0.71 0.69 0.70 0.69 0.66 0.61 0.56 0.53 0.49 0.52 0.51 0.55 0.58 0.60 0.58 0.56 0.61 0.61 0.62 0.68 0.68 0.62 0.59 0.62 0.59 0.56 0.60 0.61 0.56 0.53 0.52 0.49 0.50 0.51 0.53 0.52 0.54 0.59 0.65 0.68 0.66 0.58
0.51 0.49 0.51 0.52 0.52 0.54 0.56 0.55 0.52 0.51 0.47 0.48 0.49 0.48 0.49 0.49 0.46 0.42 0.44 0.48 0.64 0.73 0.66 0.56 0.52 0.53 0.54 0.56 0.59 0.57 0.52 0.46 0.43 0.40 0.41 0.43 0.45 0.48 0.53 0.54 0.55 0.61 0.64 0.58
0.54 0.54 0.51 0.45 0.40 0.41 0.42 0.42 0.43 0.46 0.44 0.43 0.43 0.38 0.37 0.38 0.42 0.41 0.44 0.50 0.56 0.61 0.58 0.53 0.48 0.41 0.43 0.50 0.54 0.47 0.41 0.39 0.36 0.34 0.37 0.39 0.40 0.44 0.50 0.49 0.53 0.56 0.53 0.51
0.50 0.48 0.43 0.39 0.34 0.31 0.32 0.31 0.33 0.39 0.43 0.41 0.37 0.35 0.35 0.37 0.43 0.42 0.43 0.47 0.50 0.50 0.47 0.42 0.39 0.36 0.34 0.38 0.45 0.40 0.36 0.36 0.30 0.29 0.31 0.35 0.38 0.40 0.42 0.44 0.47 0.47 0.47 0.46
0.38 0.33 0.31 0.32 0.29 0.25 0.25 0.24 0.28 0.32 0.33 0.35 0.36 0.36 0.37 0.39 0.42 0.41 0.43 0.49 0.53 0.54 0.46 0.36 0.36 0.34 0.31 0.31 0.35 0.34 0.32 0.34 0.32 0.30 0.31 0.34 0.37 0.41 0.40 0.37 0.40 0.42 0.44 0.43
0.29 0.25 0.26 0.25 0.22 0.20 0.22 0.20 0.22 0.25 0.28 0.30 0.32 0.37 0.40 0.39 0.36 0.40 0.47 0.54 0.56 0.50 0.40 0.34 0.29 0.29 0.29 0.27 0.28 0.29 0.31 0.34 0.32 0.29 0.31 0.35 0.37 0.36 0.33 0.31 0.37 0.42 0.45 0.46
0.26 0.25 0.24 0.24 0.22 0.22 0.24 0.23 0.22 0.23 0.23 0.25 0.29 0.32 0.37 0.37 0.34 0.41 0.50 0.59 0.53 0.43 0.35 0.33 0.30 0.27 0.27 0.26 0.26 0.27 0.28 0.28 0.27 0.26 0.28 0.34 0.34 0.31 0.30 0.30 0.32 0.39 0.44 0.47
0.22 0.23 0.26 0.25 0.24 0.25 0.25 0.24 0.24 0.24 0.24 0.25 0.25 0.25 0.30 0.35 0.35 0.39 0.43 0.49 0.45 0.37 0.31 0.28 0.26 0.26 0.26 0.24 0.22 0.24 0.26 0.28 0.27 0.29 0.30 0.28 0.28 0.29 0.30 0.31 0.33 0.35 0.39 0.43
0.25 0.26 0.28 0.27 0.27 0.24 0.24 0.27 0.30 0.29 0.27 0.25 0.24 0.25 0.28 0.33 0.33 0.35 0.35 0.31 0.29 0.31 0.29 0.28 0.30 0.29 0.25 0.21 0.21 0.24 0.26 0.26 0.26 0.28 0.26 0.28 0.28 0.31 0.35 0.34 0.34 0.35 0.40 0.44
0.34 0.35 0.30 0.26 0.25 0.27 0.29 0.29 0.29 0.29 0.27 0.25 0.25 0.25 0.26 0.30 0.31 0.29 0.30 0.29 0.29 0.28 0.25 0.27 0.29 0.26 0.24 0.23 0.24 0.26 0.26 0.24 0.22 0.23 0.23 0.24 0.25 0.27 0.33 0.38 0.37 0.37 0.38 0.38
0.44 0.46 0.37 0.30 0.31 0.34 0.31 0.27 0.25 0.24 0.24 0.24 0.24 0.25 0.24 0.26 0.26 0.27 0.31 0.32 0.35 0.34 0.28 0.25 0.23 0.22 0.22 0.25 0.28 0.29 0.27 0.25 0.23 0.21 0.19 0.22 0.24 0.24 0.26 0.29 0.30 0.30 0.30 0.31
0.49 0.47 0.42 0.38 0.34 0.31 0.28 0.29 0.28 0.25 0.24 0.24 0.24 0.22 0.23 0.25 0.26 0.29 0.33 0.34 0.37 0.35 0.30 0.27 0.25 0.24 0.24 0.26 0.27 0.28 0.27 0.25 0.22 0.20 0.19 0.21 0.23 0.24 0.24 0.25 0.25 0.25 0.27 0.29
0.55 0.47 0.42 0.37 0.31 0.27 0.28 0.31 0.30 0.27 0.23 0.23 0.24 0.24 0.25 0.27 0.28 0.27 0.29 0.31 0.33 0.29 0.27 0.27 0.26 0.23 0.25 0.26 0.26 0.28 0.30 0.28 0.24 0.22 0.22 0.22 0.24 0.27 0.27 0.24 0.24 0.25 0.28 0.29

GEFSNGP_prec_meanprecacc_276.txt.gz
Total_Precipitation_Accumulation
0.47 0.46 0.47 0.49 0.41 0.38 0.50 0.60 0.93 1.24 1.61 1.93 1.98 2.02 2.07 2.25 2.17 1.92 1.78 1.62 1.50 1.49 1.54 1.55 1.51 1.51 1.54 1.68 1.78 2.01 2.12 2.12 2.08 2.02 1.96 1.94 1.88 1.72 1.54 1.42 1.38 1.46 1.42 1.38
0.50 0.41 0.50 0.50 0.49 0.52 0.59 0.69 0.94 1.28 1.76 1.97 1.96 1.97 2.04 2.16 2.13 1.93 1.65 1.51 1.46 1.44 1.54 1.48 1.43 1.40 1.37 1.50 1.54 1.68 1.83 1.82 1.76 1.76 1.81 1.76 1.74 1.63 1.52 1.42 1.36 1.37 1.35 1.26
0.74 0.48 0.70 0.98 0.75 0.77 0.86 0.89 1.09 1.50 1.71 1.76 1.86 1.90 1.95 2.08 2.19 2.07 1.79 1.67 1.70 1.75 1.74 1.55 1.43 1.39 1.43 1.49 1.52 1.59 1.66 1.61 1.62 1.62 1.60 1.58 1.44 1.39 1.43 1.46 1.38 1.31 1.22 1.11
0.77 0.91 1.42 1.25 0.71 0.78 0.94 0.96 0.99 1.12 1.25 1.42 1.55 1.68 1.85 2.01 2.17 2.17 2.04 1.99 2.01 1.98 1.84 1.64 1.50 1.47 1.51 1.49 1.53 1.62 1.60 1.53 1.47 1.48 1.42 1.40 1.40 1.38 1.37 1.37 1.33 1.28 1.17 1.05
1.07 1.37 1.51 1.24 0.77 0.73 1.07 1.25 0.97 0.97 1.00 1.05 1.08 1.27 1.69 1.85 1.94 2.05 2.01 1.99 1.92 1.85 1.76 1.63 1.50 1.45 1.43 1.45 1.42 1.42 1.38 1.34 1.27 1.29 1.35 1.36 1.34 1.40 1.38 1.29 1.24 1.17 1.10 1.07
1.26 1.64 1.85 1.56 0.77 0.58 1.00 1.74 1.20 0.99 1.03 1.09 1.22 1.49 1.57 1.47 1.48 1.57 1.59 1.63 1.70 1.71 1.63 1.52 1.41 1.32 1.32 1.36 1.35 1.30 1.26 1.26 1.16 1.16 1.23 1.28 1.30 1.34 1.25 1.20 1.16 1.05 1.00 1.03
1.30 1.66 1.80 1.05 0.63 0.79 1.67 2.06 1.38 1.15 1.18 1.30 1.41 1.39 1.15 1.06 1.12 1.23 1.36 1.38 1.40 1.56 1.61 1.43 1.23 1.18 1.26 1.26 1.24 1.11 1.10 1.16 1.15 1.13 1.15 1.15 1.17 1.21 1.18 1.13 1.13 1.13 1.11 1.11
1.39 1.84 1.97 0.95 0.79 1.25 1.51 1.18 1.11 1.11 1.14 1.16 1.07 0.92 0.88 0.89 0.91 0.96 1.14 1.26 1.26 1.41 1.39 1.22 1.10 1.14 1.21 1.21 1.10 1.02 1.08 1.19 1.18 1.15 1.05 1.03 1.17 1.21 1.15 1.13 1.09 1.13 1.14 1.13
1.48 1.72 1.36 0.81 0.82 0.89 0.85 0.90 0.89 0.88 0.85 0.80 0.79 0.75 0.74 0.82 0.87 0.90 1.00 1.11 1.13 1.22 1.22 1.12 1.06 1.12 1.17 1.15 1.04 1.08 1.17 1.20 1.21 1.13 1.10 1.10 1.14 1.16 1.11 1.07 0.99 0.98 0.99 1.02
1.12 1.11 0.81 0.71 0.70 0.68 0.66 0.71 0.70 0.71 0.77 0.68 0.68 0.70 0.70 0.74 0.83 0.92 0.97 0.99 1.01 1.10 1.11 1.04 0.96 0.97 1.00 0.94 0.94 1.09 1.22 1.19 1.17 1.15 1.14 1.09 1.05 1.01 0.99 0.97 0.91 0.85 0.86 0.88
1.07 0.89 0.76 0.70 0.62 0.63 0.69 0.67 0.64 0.65 0.72 0.71 0.68 0.75 0.74 0.75 0.81 0.88 0.95 0.96 1.01 1.10 1.09 0.97 0.88 0.85 0.84 0.88 0.97 1.12 1.14 1.09 1.05 1.06 1.03 0.99 0.89 0.83 0.81 0.75 0.67 0.64 0.64 0.65
1.08 0.88 0.91 0.83 0.65 0.60 0.72 0.82 0.74 0.70 0.75 0.71 0.68 0.74 0.81 0.84 0.82 0.84 0.93 0.96 1.02 1.02 0.98 0.91 0.81 0.77 0.80 0.85 0.88 1.00 1.02 0.99 0.94 0.95 0.92 0.85 0.81 0.75 0.69 0.57 0.54 0.49 0.45 0.47
0.77 0.69 0.67 0.64 0.65 0.72 0.80 0.81 0.74 0.75 0.68 0.61 0.68 0.73 0.81 0.86 0.77 0.76 0.82 0.90 1.00 0.95 0.87 0.83 0.77 0.78 0.79 0.72 0.72 0.83 0.91 0.91 0.80 0.75 0.79 0.79 0.76 0.76 0.77 0.62 0.51 0.47 0.45 0.47
0.58 0.65 0.75 0.81 0.90 0.89 0.84 0.75 0.69 0.65 0.60 0.54 0.58 0.68 0.71 0.73 0.68 0.70 0.77 0.81 0.81 0.82 0.79 0.78 0.77 0.76 0.69 0.63 0.69 0.75 0.75 0.72 0.69 0.69 0.67 0.65 0.65 0.65 0.67 0.75 0.74 0.67 0.56 0.52
0.59 0.66 0.76 0.75 0.78 0.78 0.71 0.64 0.59 0.56 0.54 0.57 0.54 0.57 0.60 0.62 0.61 0.59 0.64 0.64 0.66 0.71 0.70 0.64 0.62 0.66 0.64 0.61 0.65 0.65 0.60 0.57 0.56 0.53 0.53 0.55 0.57 0.56 0.57 0.62 0.70 0.72 0.71 0.64
0.54 0.52 0.55 0.57 0.59 0.62 0.62 0.59 0.56 0.54 0.51 0.53 0.53 0.52 0.53 0.52 0.49 0.45 0.47 0.52 0.69 0.77 0.69 0.59 0.54 0.55 0.56 0.58 0.62 0.59 0.54 0.49 0.45 0.43 0.43 0.46 0.48 0.52 0.57 0.58 0.59 0.66 0.69 0.64
0.58 0.60 0.58 0.51 0.47 0.46 0.47 0.47 0.46 0.49 0.47 0.47 0.48 0.44 0.42 0.42 0.45 0.44 0.47 0.53 0.61 0.66 0.63 0.58 0.52 0.44 0.45 0.52 0.56 0.49 0.42 0.40 0.37 0.34 0.38 0.41 0.42 0.46 0.52 0.52 0.57 0.60 0.57 0.55
0.54 0.53 0.49 0.46 0.40 0.35 0.36 0.36 0.37 0.43 0.46 0.44 0.39 0.39 0.39 0.40 0.45 0.44 0.45 0.49 0.54 0.55 0.52 0.47 0.44 0.39 0.35 0.40 0.46 0.42 0.37 0.37 0.31 0.29 0.32 0.37 0.39 0.42 0.43 0.46 0.49 0.50 0.50 0.49
0.41 0.37 0.36 0.38 0.34 0.28 0.27 0.27 0.32 0.36 0.37 0.38 0.38 0.38 0.39 0.41 0.44 0.43 0.45 0.51 0.56 0.58 0.52 0.41 0.42 0.39 0.33 0.32 0.36 0.35 0.34 0.35 0.33 0.32 0.32 0.35 0.38 0.42 0.42 0.39 0.42 0.45 0.46 0.46
0.32 0.29 0.30 0.29 0.26 0.23 0.24 0.22 0.24 0.28 0.31 0.32 0.35 0.39 0.43 0.42 0.38 0.42 0.50 0.58 0.59 0.53 0.45 0.40 0.34 0.34 0.34 0.30 0.30 0.30 0.33 0.36 0.35 0.31 0.33 0.37 0.39 0.38 0.35 0.34 0.39 0.44 0.47 0.49
0.30 0.28 0.28 0.26 0.24 0.24 0.26 0.25 0.24 0.24 0.24 0.27 0.31 0.36 0.40 0.41 0.38 0.44 0.55 0.63 0.57 0.47 0.39 0.38 0.33 0.31 0.32 0.31 0.29 0.29 0.30 0.30 0.29 0.28 0.31 0.36 0.36 0.32 0.31 0.32 0.34 0.42 0.47 0.49
0.25 0.26 0.29 0.28 0.27 0.27 0.27 0.26 0.26 0.26 0.25 0.26 0.26 0.27 0.32 0.37 0.37 0.43 0.48 0.55 0.52 0.43 0.36 0.33 0.29 0.29 0.31 0.31 0.28 0.28 0.29 0.31 0.29 0.31 0.33 0.30 0.30 0.30 0.32 0.33 0.35 0.38 0.41 0.45
0.28 0.30 0.32 0.31 0.30 0.27 0.26 0.30 0.32 0.31 0.28 0.26 0.24 0.25 0.29 0.34 0.35 0.39 0.40 0.36 0.36 0.38 0.36 0.34 0.35 0.33 0.29 0.26 0.27 0.32 0.33 0.32 0.30 0.31 0.30 0.31 0.31 0.33 0.37 0.37 0.36 0.37 0.42 0.46
0.37 0.40 0.35 0.31 0.30 0.31 0.33 0.32 0.32 0.32 0.29 0.26 0.26 0.26 0.27 0.31 0.33 0.32 0.33 0.35 0.37 0.35 0.31 0.34 0.36 0.31 0.28 0.26 0.29 0.32 0.33 0.31 0.29 0.29 0.28 0.28 0.28 0.30 0.36 0.42 0.42 0.41 0.41 0.41
0.46 0.49 0.42 0.36 0.38 0.40 0.36 0.33 0.30 0.28 0.26 0.25 0.25 0.26 0.25 0.26 0.26 0.29 0.34 0.36 0.41 0.39 0.33 0.33 0.30 0.28 0.27 0.29 0.33 0.33 0.31 0.30 0.29 0.27 0.25 0.27 0.28 0.27 0.29 0.33 0.37 0.35 0.34 0.35
0.52 0.51 0.47 0.44 0.41 0.38 0.36 0.36 0.33 0.30 0.29 0.29 0.28 0.25 0.24 0.25 0.27 0.30 0.34 0.37 0.42 0.40 0.35 0.32 0.32 0.30 0.31 0.33 0.33 0.34 0.32 0.30 0.29 0.26 0.25 0.27 0.29 0.29 0.29 0.30 0.32 0.33 0.33 0.33
0.58 0.51 0.48 0.42 0.36 0.32 0.33 0.37 0.37 0.33 0.29 0.30 0.30 0.28 0.27 0.28 0.29 0.28 0.30 0.34 0.37 0.34 0.32 0.31 0.31 0.29 0.31 0.33 0.34 0.36 0.37 0.34 0.30 0.29 0.30 0.30 0.32 0.35 0.33 0.30 0.31 0.33 0.34 0.34

GEFSNGP_prec_meanprecacc_282.txt.gz
Total_Precipitation_Accumulation
0.48 0.46 0.48 0.51 0.44 0.40 0.52 0.62 0.96 1.28 1.66 2.00 2.04 2.08 2.13 2.30 2.23 1.97 1.82 1.67 1.55 1.55 1.58 1.58 1.54 1.54 1.57 1.72 1.81 2.03 2.15 2.16 2.12 2.05 1.99 1.96 1.90 1.74 1.56 1.45 1.41 1.50 1.46 1.42
0.52 0.42 0.51 0.52 0.51 0.54 0.62 0.72 0.97 1.32 1.84 2.07 2.03 2.03 2.10 2.21 2.19 1.99 1.70 1.58 1.55 1.51 1.60 1.54 1.47 1.43 1.40 1.54 1.58 1.72 1.86 1.86 1.80 1.78 1.83 1.78 1.75 1.64 1.54 1.44 1.38 1.40 1.39 1.30
0.76 0.49 0.72 1.00 0.78 0.81 0.91 0.95 1.13 1.55 1.76 1.82 1.91 1.94 1.99 2.13 2.23 2.11 1.84 1.73 1.77 1.82 1.83 1.66 1.52 1.45 1.48 1.54 1.57 1.62 1.69 1.64 1.64 1.64 1.61 1.60 1.46 1.41 1.45 1.48 1.40 1.33 1.24 1.15
0.79 0.94 1.48 1.29 0.74 0.82 0.98 1.01 1.03 1.16 1.28 1.45 1.58 1.71 1.89 2.05 2.21 2.21 2.10 2.05 2.07 2.04 1.89 1.71 1.59 1.55 1.57 1.54 1.56 1.64 1.62 1.55 1.49 1.49 1.43 1.41 1.42 1.41 1.40 1.40 1.35 1.30 1.19 1.07
1.10 1.41 1.56 1.29 0.81 0.78 1.12 1.31 1.02 1.01 1.03 1.07 1.11 1.30 1.72 1.87 1.96 2.09 2.07 2.03 1.96 1.91 1.81 1.68 1.56 1.51 1.49 1.50 1.46 1.44 1.40 1.36 1.28 1.30 1.36 1.37 1.35 1.42 1.40 1.31 1.26 1.19 1.11 1.08
1.28 1.68 1.92 1.63 0.82 0.63 1.07 1.81 1.24 1.03 1.07 1.12 1.24 1.52 1.60 1.50 1.50 1.62 1.64 1.66 1.73 1.76 1.68 1.56 1.44 1.37 1.37 1.41 1.38 1.32 1.28 1.27 1.18 1.18 1.24 1.30 1.32 1.35 1.27 1.22 1.18 1.06 1.01 1.05
1.33 1.71 1.87 1.12 0.69 0.85 1.76 2.13 1.41 1.18 1.20 1.33 1.44 1.41 1.17 1.08 1.15 1.26 1.40 1.41 1.43 1.60 1.66 1.48 1.26 1.21 1.30 1.31 1.28 1.15 1.13 1.19 1.18 1.15 1.16 1.17 1.19 1.23 1.20 1.15 1.15 1.14 1.12 1.12
1.42 1.88 2.01 0.99 0.84 1.33 1.61 1.26 1.15 1.14 1.17 1.19 1.10 0.95 0.91 0.92 0.93 0.98 1.17 1.29 1.29 1.44 1.43 1.27 1.15 1.19 1.26 1.25 1.13 1.05 1.12 1.23 1.21 1.18 1.07 1.05 1.19 1.23 1.18 1.16 1.11 1.16 1.16 1.15
1.55 1.78 1.42 0.88 0.90 0.97 0.94 0.97 0.94 0.92 0.87 0.82 0.82 0.81 0.81 0.88 0.94 0.96 1.04 1.15 1.16 1.24 1.25 1.16 1.12 1.17 1.22 1.18 1.08 1.13 1.21 1.25 1.27 1.18 1.14 1.12 1.16 1.18 1.13 1.09 1.01 1.01 1.03 1.05
1.21 1.21 0.91 0.80 0.79 0.78 0.76 0.79 0.77 0.77 0.82 0.71 0.72 0.75 0.78 0.84 0.96 1.04 1.07 1.06 1.06 1.15 1.15 1.10 1.02 1.01 1.04 0.98 0.98 1.13 1.26 1.22 1.20 1.20 1.19 1.14 1.09 1.04 1.02 1.00 0.93 0.87 0.89 0.91
1.20 1.03 0.85 0.76 0.68 0.69 0.76 0.75 0.71 0.71 0.78 0.75 0.71 0.78 0.77 0.78 0.87 0.96 1.01 1.01 1.04 1.14 1.13 1.00 0.92 0.88 0.88 0.93 1.02 1.16 1.19 1.13 1.09 1.10 1.07 1.04 0.94 0.86 0.83 0.76 0.68 0.66 0.66 0.67
1.17 0.96 1.01 0.92 0.72 0.67 0.81 0.91 0.83 0.80 0.80 0.74 0.71 0.77 0.83 0.86 0.84 0.89 0.98 1.00 1.06 1.05 1.01 0.93 0.83 0.80 0.83 0.88 0.91 1.05 1.07 1.03 0.99 1.01 0.98 0.91 0.87 0.80 0.73 0.60 0.55 0.50 0.47 0.48
0.82 0.75 0.76 0.72 0.74 0.81 0.91 0.91 0.83 0.84 0.76 0.68 0.74 0.77 0.84 0.89 0.80 0.80 0.88 0.94 1.03 0.98 0.89 0.85 0.80 0.81 0.83 0.75 0.75 0.86 0.95 0.96 0.86 0.81 0.85 0.84 0.81 0.81 0.84 0.69 0.58 0.52 0.49 0.51
0.63 0.71 0.83 0.87 0.98 0.98 0.93 0.83 0.77 0.73 0.67 0.60 0.62 0.72 0.74 0.75 0.70 0.73 0.84 0.85 0.84 0.84 0.82 0.81 0.80 0.79 0.72 0.67 0.72 0.78 0.79 0.77 0.75 0.76 0.74 0.70 0.69 0.68 0.71 0.79 0.80 0.74 0.62 0.58
0.63 0.70 0.80 0.79 0.83 0.84 0.77 0.69 0.64 0.63 0.60 0.61 0.57 0.61 0.64 0.65 0.63 0.62 0.70 0.70 0.70 0.74 0.73 0.68 0.66 0.69 0.67 0.64 0.67 0.68 0.63 0.60 0.60 0.59 0.60 0.62 0.63 0.61 0.61 0.65 0.72 0.75 0.74 0.67
0.56 0.54 0.58 0.60 0.64 0.68 0.68 0.64 0.61 0.60 0.56 0.57 0.57 0.56 0.56 0.54 0.51 0.47 0.52 0.56 0.72 0.80 0.72 0.63 0.58 0.58 0.58 0.60 0.64 0.61 0.56 0.50 0.47 0.46 0.48 0.51 0.54 0.57 0.60 0.61 0.61 0.68 0.71 0.66
0.60 0.62 0.61 0.54 0.51 0.52 0.52 0.51 0.50 0.53 0.52 0.52 0.54 0.49 0.46 0.44 0.46 0.46 0.50 0.56 0.63 0.68 0.65 0.62 0.56 0.47 0.48 0.54 0.57 0.50 0.43 0.41 0.38 0.36 0.40 0.43 0.45 0.49 0.55 0.54 0.58 0.62 0.59 0.57
0.57 0.56 0.52 0.49 0.45 0.39 0.39 0.39 0.40 0.46 0.48 0.48 0.44 0.43 0.41 0.42 0.47 0.46 0.47 0.53 0.57 0.57 0.55 0.50 0.47 0.42 0.38 0.41 0.47 0.43 0.38 0.38 0.32 0.30 0.33 0.38 0.41 0.43 0.45 0.47 0.50 0.51 0.51 0.50
0.45 0.40 0.39 0.41 0.37 0.30 0.30 0.30 0.35 0.39 0.38 0.40 0.42 0.43 0.43 0.44 0.47 0.45 0.48 0.55 0.59 0.60 0.55 0.44 0.46 0.42 0.35 0.34 0.37 0.36 0.34 0.36 0.34 0.33 0.33 0.36 0.40 0.44 0.42 0.40 0.43 0.46 0.48 0.47
0.37 0.33 0.32 0.31 0.28 0.26 0.26 0.24 0.27 0.30 0.33 0.33 0.36 0.42 0.47 0.46 0.43 0.46 0.52 0.60 0.62 0.56 0.47 0.42 0.37 0.37 0.35 0.32 0.32 0.32 0.34 0.37 0.36 0.32 0.34 0.38 0.40 0.39 0.36 0.35 0.41 0.46 0.49 0.51
0.34 0.33 0.32 0.29 0.27 0.28 0.29 0.28 0.28 0.28 0.27 0.29 0.32 0.37 0.43 0.45 0.43 0.48 0.57 0.65 0.59 0.49 0.42 0.41 0.36 0.33 0.33 0.33 0.31 0.31 0.32 0.32 0.31 0.29 0.32 0.37 0.37 0.33 0.32 0.34 0.35 0.43 0.50 0.53
0.28 0.31 0.33 0.32 0.30 0.31 0.31 0.31 0.31 0.30 0.26 0.26 0.27 0.27 0.33 0.39 0.39 0.45 0.50 0.57 0.54 0.47 0.41 0.39 0.33 0.31 0.32 0.32 0.31 0.31 0.32 0.33 0.32 0.33 0.34 0.31 0.31 0.32 0.33 0.35 0.36 0.39 0.43 0.49
0.32 0.35 0.36 0.36 0.35 0.32 0.30 0.34 0.37 0.35 0.31 0.28 0.26 0.26 0.30 0.34 0.36 0.40 0.42 0.39 0.39 0.42 0.40 0.40 0.41 0.36 0.31 0.27 0.30 0.35 0.36 0.34 0.33 0.34 0.32 0.33 0.32 0.35 0.39 0.38 0.38 0.39 0.44 0.50
0.41 0.44 0.39 0.35 0.34 0.36 0.36 0.35 0.36 0.35 0.31 0.29 0.28 0.28 0.29 0.32 0.34 0.33 0.36 0.37 0.39 0.38 0.35 0.40 0.42 0.35 0.31 0.28 0.30 0.34 0.36 0.35 0.33 0.32 0.31 0.31 0.31 0.32 0.39 0.45 0.44 0.42 0.44 0.45
0.50 0.53 0.46 0.41 0.43 0.48 0.42 0.35 0.32 0.30 0.28 0.28 0.28 0.29 0.27 0.28 0.28 0.31 0.36 0.38 0.44 0.43 0.37 0.38 0.36 0.31 0.29 0.31 0.34 0.35 0.35 0.36 0.35 0.33 0.31 0.34 0.33 0.31 0.32 0.38 0.41 0.38 0.37 0.39
0.57 0.55 0.51 0.48 0.46 0.46 0.43 0.41 0.37 0.34 0.32 0.32 0.31 0.28 0.26 0.28 0.29 0.32 0.36 0.39 0.44 0.43 0.38 0.37 0.35 0.33 0.32 0.35 0.35 0.37 0.36 0.35 0.35 0.34 0.34 0.37 0.38 0.37 0.35 0.37 0.40 0.38 0.38 0.38
0.61 0.54 0.51 0.46 0.39 0.36 0.39 0.42 0.41 0.37 0.33 0.34 0.34 0.31 0.29 0.30 0.30 0.30 0.32 0.35 0.38 0.36 0.34 0.35 0.35 0.32 0.32 0.34 0.35 0.39 0.41 0.38 0.35 0.36 0.38 0.39 0.42 0.46 0.44 0.39 0.40 0.41 0.41 0.40

GEFSNGP_prec_meanprecacc_288.txt.gz
Total_Precipitation_Accumulation
0.49 0.48 0.49 0.51 0.45 0.42 0.53 0.64 0.99 1.30 1.68 2.01 2.06 2.10 2.14 2.32 2.25 1.98 1.83 1.68 1.56 1.56 1.60 1.60 1.56 1.56 1.58 1.74 1.83 2.05 2.17 2.18 2.15 2.09 2.04 2.02 1.95 1.78 1.60 1.47 1.43 1.53 1.50 1.47
0.52 0.43 0.52 0.53 0.53 0.56 0.63 0.75 1.00 1.35 1.85 2.08 2.04 2.04 2.11 2.23 2.20 2.00 1.71 1.59 1.57 1.53 1.62 1.56 1.49 1.44 1.42 1.56 1.62 1.77 1.90 1.89 1.84 1.84 1.92 1.88 1.81 1.67 1.56 1.45 1.40 1.42 1.41 1.33
0.77 0.50 0.73 1.02 0.79 0.82 0.93 0.96 1.14 1.56 1.77 1.83 1.93 1.96 2.01 2.14 2.24 2.13 1.85 1.75 1.78 1.83 1.85 1.69 1.55 1.47 1.51 1.57 1.61 1.67 1.74 1.68 1.69 1.70 1.68 1.65 1.50 1.43 1.46 1.48 1.40 1.33 1.25 1.16
0.80 0.95 1.49 1.30 0.75 0.84 1.00 1.02 1.05 1.18 1.30 1.47 1.60 1.73 1.91 2.08 2.23 2.23 2.11 2.07 2.09 2.06 1.92 1.75 1.63 1.60 1.62 1.58 1.61 1.70 1.67 1.59 1.54 1.54 1.48 1.44 1.44 1.42 1.41 1.41 1.35 1.30 1.19 1.08
1.10 1.41 1.57 1.30 0.82 0.80 1.15 1.34 1.04 1.04 1.06 1.10 1.14 1.33 1.76 1.90 1.99 2.12 2.09 2.05 1.98 1.93 1.83 1.70 1.58 1.53 1.51 1.52 1.50 1.50 1.43 1.39 1.32 1.34 1.39 1.39 1.37 1.43 1.41 1.32 1.27 1.19 1.12 1.09
1.29 1.69 1.93 1.64 0.83 0.65 1.10 1.84 1.27 1.06 1.11 1.15 1.28 1.56 1.64 1.53 1.53 1.64 1.65 1.67 1.74 1.77 1.70 1.58 1.46 1.39 1.40 1.44 1.42 1.36 1.32 1.31 1.20 1.20 1.26 1.31 1.33 1.36 1.28 1.22 1.19 1.06 1.02 1.05
1.33 1.72 1.88 1.12 0.70 0.87 1.80 2.18 1.45 1.21 1.24 1.36 1.48 1.45 1.20 1.11 1.17 1.28 1.42 1.42 1.45 1.61 1.68 1.50 1.29 1.24 1.33 1.34 1.32 1.19 1.17 1.23 1.22 1.19 1.20 1.21 1.23 1.26 1.22 1.16 1.16 1.15 1.13 1.13
1.44 1.89 2.02 1.01 0.86 1.36 1.65 1.30 1.19 1.18 1.21 1.23 1.14 0.99 0.95 0.95 0.96 1.00 1.18 1.30 1.30 1.45 1.44 1.29 1.17 1.21 1.29 1.28 1.18 1.11 1.17 1.28 1.26 1.23 1.12 1.09 1.23 1.27 1.21 1.19 1.13 1.17 1.17 1.16
1.58 1.82 1.46 0.92 0.95 1.03 0.99 1.02 0.99 0.97 0.92 0.87 0.87 0.85 0.83 0.90 0.96 0.98 1.06 1.18 1.18 1.26 1.27 1.18 1.14 1.20 1.26 1.23 1.15 1.20 1.28 1.31 1.33 1.24 1.20 1.18 1.22 1.22 1.17 1.15 1.06 1.04 1.04 1.06
1.24 1.26 0.97 0.85 0.83 0.83 0.81 0.84 0.81 0.81 0.85 0.74 0.75 0.78 0.80 0.86 0.98 1.08 1.12 1.11 1.11 1.20 1.19 1.14 1.08 1.08 1.10 1.05 1.06 1.22 1.36 1.32 1.29 1.29 1.27 1.21 1.16 1.11 1.07 1.05 0.98 0.92 0.91 0.93
1.24 1.07 0.89 0.79 0.70 0.72 0.80 0.79 0.75 0.76 0.81 0.78 0.73 0.80 0.80 0.82 0.90 1.00 1.06 1.05 1.08 1.19 1.19 1.06 0.98 0.96 0.97 1.02 1.11 1.25 1.28 1.24 1.20 1.20 1.16 1.13 1.02 0.95 0.91 0.83 0.73 0.70 0.69 0.69
1.21 1.00 1.04 0.94 0.74 0.69 0.84 0.94 0.87 0.85 0.86 0.79 0.75 0.81 0.87 0.89 0.88 0.93 1.02 1.04 1.08 1.08 1.05 0.97 0.87 0.84 0.90 0.95 0.99 1.13 1.13 1.10 1.07 1.09 1.04 0.97 0.93 0.86 0.78 0.65 0.59 0.53 0.48 0.49
0.85 0.78 0.80 0.76 0.78 0.87 0.97 0.96 0.87 0.89 0.82 0.73 0.78 0.82 0.88 0.92 0.83 0.83 0.91 0.97 1.05 1.00 0.92 0.88 0.84 0.85 0.88 0.82 0.82 0.93 1.01 1.01 0.91 0.87 0.91 0.89 0.86 0.86 0.88 0.72 0.60 0.54 0.50 0.51
0.66 0.74 0.87 0.89 1.01 1.05 1.00 0.89 0.82 0.78 0.72 0.65 0.66 0.75 0.77 0.79 0.74 0.76 0.86 0.87 0.86 0.86 0.84 0.83 0.83 0.83 0.76 0.73 0.79 0.85 0.86 0.83 0.80 0.81 0.80 0.75 0.75 0.74 0.75 0.82 0.82 0.76 0.64 0.60
0.66 0.73 0.83 0.81 0.86 0.91 0.85 0.76 0.71 0.68 0.65 0.68 0.64 0.66 0.69 0.69 0.66 0.65 0.73 0.73 0.73 0.76 0.76 0.71 0.69 0.73 0.71 0.69 0.74 0.74 0.69 0.66 0.66 0.64 0.66 0.67 0.67 0.66 0.67 0.70 0.75 0.77 0.76 0.70
0.61 0.57 0.60 0.62 0.66 0.72 0.75 0.71 0.66 0.67 0.64 0.67 0.67 0.65 0.63 0.60 0.56 0.52 0.57 0.61 0.77 0.83 0.74 0.66 0.62 0.62 0.61 0.64 0.68 0.65 0.59 0.54 0.52 0.51 0.53 0.55 0.58 0.61 0.66 0.65 0.65 0.70 0.74 0.69
0.65 0.66 0.64 0.57 0.54 0.56 0.57 0.55 0.55 0.60 0.60 0.61 0.63 0.57 0.51 0.49 0.52 0.53 0.58 0.62 0.68 0.71 0.68 0.65 0.59 0.51 0.51 0.56 0.60 0.53 0.46 0.44 0.41 0.39 0.43 0.46 0.47 0.52 0.58 0.57 0.61 0.65 0.62 0.59
0.61 0.60 0.56 0.52 0.48 0.43 0.42 0.42 0.46 0.52 0.55 0.54 0.51 0.49 0.47 0.47 0.52 0.54 0.54 0.59 0.61 0.59 0.57 0.53 0.50 0.45 0.41 0.43 0.49 0.45 0.40 0.39 0.34 0.33 0.35 0.39 0.42 0.45 0.47 0.49 0.52 0.52 0.53 0.53
0.48 0.44 0.42 0.44 0.41 0.34 0.33 0.34 0.42 0.45 0.45 0.46 0.48 0.51 0.50 0.49 0.52 0.50 0.53 0.59 0.61 0.62 0.57 0.47 0.49 0.44 0.38 0.37 0.39 0.37 0.35 0.37 0.35 0.34 0.35 0.38 0.41 0.45 0.44 0.41 0.44 0.47 0.49 0.48
0.40 0.36 0.36 0.35 0.32 0.29 0.30 0.28 0.32 0.35 0.37 0.39 0.43 0.49 0.52 0.52 0.48 0.51 0.57 0.62 0.64 0.58 0.50 0.45 0.41 0.40 0.38 0.35 0.34 0.33 0.35 0.37 0.36 0.33 0.35 0.39 0.42 0.41 0.38 0.37 0.43 0.47 0.50 0.52
0.38 0.37 0.36 0.33 0.31 0.30 0.32 0.33 0.34 0.31 0.30 0.32 0.38 0.42 0.48 0.50 0.49 0.54 0.61 0.68 0.62 0.52 0.45 0.44 0.40 0.38 0.37 0.37 0.35 0.34 0.34 0.33 0.31 0.30 0.33 0.37 0.37 0.34 0.33 0.35 0.37 0.45 0.51 0.55
0.34 0.36 0.38 0.36 0.34 0.35 0.35 0.35 0.36 0.35 0.30 0.29 0.30 0.31 0.38 0.44 0.44 0.49 0.55 0.61 0.57 0.49 0.43 0.41 0.38 0.36 0.36 0.37 0.34 0.33 0.34 0.35 0.33 0.34 0.35 0.32 0.32 0.32 0.34 0.35 0.37 0.40 0.45 0.51
0.38 0.40 0.41 0.40 0.39 0.35 0.33 0.37 0.40 0.39 0.35 0.30 0.28 0.29 0.33 0.38 0.39 0.43 0.45 0.42 0.41 0.43 0.42 0.42 0.43 0.39 0.34 0.30 0.32 0.36 0.36 0.35 0.35 0.36 0.33 0.34 0.33 0.36 0.40 0.39 0.39 0.40 0.46 0.53
0.46 0.49 0.44 0.39 0.38 0.39 0.39 0.38 0.39 0.38 0.35 0.31 0.30 0.30 0.32 0.35 0.36 0.35 0.38 0.40 0.41 0.40 0.37 0.41 0.43 0.37 0.33 0.30 0.32 0.36 0.38 0.36 0.35 0.35 0.32 0.33 0.32 0.33 0.40 0.46 0.46 0.45 0.46 0.47
0.53 0.56 0.49 0.44 0.47 0.52 0.46 0.39 0.35 0.33 0.31 0.31 0.30 0.31 0.30 0.31 0.32 0.35 0.39 0.39 0.45 0.44 0.38 0.39 0.38 0.33 0.31 0.33 0.36 0.37 0.36 0.37 0.37 0.35 0.33 0.36 0.35 0.33 0.34 0.39 0.44 0.41 0.40 0.41
0.59 0.58 0.53 0.51 0.48 0.49 0.48 0.45 0.42 0.37 0.36 0.35 0.33 0.30 0.28 0.30 0.33 0.37 0.41 0.42 0.47 0.45 0.40 0.39 0.38 0.35 0.35 0.38 0.37 0.38 0.37 0.36 0.37 0.36 0.36 0.40 0.42 0.41 0.39 0.40 0.43 0.41 0.41 0.41
0.63 0.56 0.53 0.48 0.41 0.38 0.42 0.46 0.45 0.40 0.37 0.37 0.37 0.33 0.31 0.32 0.33 0.32 0.34 0.38 0.41 0.38 0.37 0.38 0.37 0.34 0.35 0.37 0.38 0.41 0.43 0.39 0.37 0.39 0.41 0.43 0.48 0.52 0.51 0.45 0.45 0.46 0.44 0.44